| time (UTC) | temp F | wind direction | speed MPH | gust MPH | rain 1hr in | rain 24hr in | rain mn in | humidity % | barometer mb |
| 20260906000607 | 80 | 159 | 0.0 | 0.0 | 0.00 | 0.00 | 0.00 | 77 | 1015.5 |
| 20260906000434 | 80 | 159 | 0.0 | 0.0 | 0.00 | 0.00 | 0.00 | 77 | 1015.5 |
| 20260906000207 | 80 | 106 | 0.0 | 0.0 | 0.00 | 0.00 | 0.00 | 77 | 1015.5 |
| 20260906000004 | 80 | 28 | 0.0 | 0.0 | 0.00 | 0.00 | 0.00 | 77 | 1015.4 |
| 20260905235904 | 81 | 162 | 0.0 | 0.0 | 0.00 | 0.00 | 0.00 | 77 | 1015.5 |
| 20260905235602 | 81 | 104 | 0.0 | 0.0 | 0.00 | 0.00 | 0.00 | 77 | 1015.5 |
| 20260905235534 | 81 | 37 | 0.0 | 0.0 | 0.00 | 0.00 | 0.00 | 76 | 1015.5 |
| 20260905235459 | 81 | 285 | 0.0 | 0.0 | 0.00 | 0.00 | 0.00 | 76 | 1015.4 |
| 20260905235203 | 81 | 4 | 0.0 | 0.0 | 0.00 | 0.00 | 0.00 | 76 | 1015.5 |
| 20260905235035 | 81 | 4 | 0.0 | 0.0 | 0.00 | 0.00 | 0.00 | 76 | 1015.4 |
| 20260905234931 | 81 | 4 | 0.0 | 0.0 | 0.00 | 0.00 | 0.00 | 76 | 1015.4 |
| 20260905234723 | 82 | 41 | 0.0 | 0.0 | 0.00 | 0.00 | 0.00 | 76 | 1015.5 |
| 20260905234522 | 82 | 75 | 0.0 | 0.0 | 0.00 | 0.00 | 0.00 | 76 | 1015.4 |
| 20260905234236 | 0 | 0.0 | 0.0 | 0.00 | 0.00 | 0.00 | |||
| 20260905234135 | 0 | 0.0 | 0.0 | 0.00 | 0.00 | 0.00 | |||
| 20260905234003 | 0 | 0.0 | 0.0 | 0.00 | 0.00 | 0.00 | |||
| 20260905233834 | 0 | 0.0 | 0.0 | 0.00 | 0.00 | 0.00 | |||
| 20260905233735 | 0 | 0.0 | 0.0 | 0.00 | 0.00 | 0.00 | |||
| 20260905233502 | 0 | 0.0 | 0.0 | 0.00 | 0.00 | 0.00 | |||
| 20260905233407 | 0 | 0.0 | 0.0 | 0.00 | 0.00 | 0.00 | |||
| 20260905233206 | 0 | 0.0 | 0.0 | 0.00 | 0.00 | 0.00 | |||
| 20260905233007 | 0 | 0.0 | 0.0 | 0.00 | 0.00 | 0.00 | 1015.4 | ||
| 20260905232807 | 0 | 0.0 | 0.0 | 0.00 | 0.00 | 0.00 | 1015.4 | ||
| 20260905232634 | 82 | 39 | 0.0 | 4.0 | 0.00 | 0.00 | 0.00 | 75 | 1015.4 |
| 20260905232435 | 82 | 39 | 0.0 | 7.0 | 0.00 | 0.00 | 0.00 | 75 | 1015.4 |
| 20260905232336 | 82 | 39 | 0.0 | 7.0 | 0.00 | 0.00 | 0.00 | 75 | 1015.4 |
| 20260905232210 | 82 | 39 | 0.0 | 7.0 | 0.00 | 0.00 | 0.00 | 75 | 1015.4 |
| 20260905231912 | 82 | 39 | 0.0 | 7.0 | 0.00 | 0.00 | 0.00 | 75 | 1015.3 |
| 20260905231712 | 82 | 39 | 0.0 | 7.0 | 0.00 | 0.00 | 0.00 | 75 | 1015.3 |
| 20260905231511 | 82 | 32 | 0.0 | 7.0 | 0.00 | 0.00 | 0.00 | 75 | 1015.2 |
| 20260905231410 | 82 | 25 | 0.0 | 5.0 | 0.00 | 0.00 | 0.00 | 75 | 1015.1 |
| 20260905231310 | 82 | 75 | 0.0 | 5.0 | 0.00 | 0.00 | 0.00 | 75 | 1015.1 |
| 20260905231211 | 82 | 4 | 0.0 | 5.0 | 0.00 | 0.00 | 0.00 | 75 | 1015.2 |
| 20260905230911 | 82 | 37 | 0.0 | 0.0 | 0.00 | 0.00 | 0.00 | 75 | 1015.2 |
| 20260905230710 | 82 | 41 | 0.0 | 0.0 | 0.00 | 0.00 | 0.00 | 75 | 1015.1 |
| 20260905230509 | 82 | 76 | 0.0 | 0.0 | 0.00 | 0.00 | 0.00 | 75 | 1015.1 |
| 20260905230408 | 82 | 45 | 0.0 | 0.0 | 0.00 | 0.00 | 0.00 | 75 | 1015.1 |
| 20260905230308 | 82 | 34 | 0.0 | 0.0 | 0.00 | 0.00 | 0.00 | 75 | 1015.1 |
| 20260905230244 | 82 | 51 | 0.0 | 0.0 | 0.00 | 0.00 | 0.00 | 76 | 1015.1 |
| 20260905230146 | 82 | 48 | 0.0 | 0.0 | 0.00 | 0.00 | 0.00 | 76 | 1015.1 |
| 20260905230138 | 82 | 42 | 0.0 | 0.0 | 0.00 | 0.00 | 0.00 | 76 | 1015.2 |
| 20260905225636 | 82 | 65 | 0.0 | 0.0 | 0.00 | 0.00 | 0.00 | 75 | 1015.1 |
| 20260905225435 | 82 | 158 | 0.0 | 0.0 | 0.00 | 0.00 | 0.00 | 76 | 1015.0 |
| 20260905225403 | 82 | 20 | 0.0 | 0.0 | 0.00 | 0.00 | 0.00 | 75 | 1015.1 |
| 20260905225232 | 82 | 21 | 0.0 | 0.0 | 0.00 | 0.00 | 0.00 | 75 | 1015.0 |
| 20260905225032 | 82 | 21 | 0.0 | 0.0 | 0.00 | 0.00 | 0.00 | 75 | 1015.0 |
| 20260905224902 | 82 | 25 | 0.0 | 2.0 | 0.00 | 0.00 | 0.00 | 75 | 1014.8 |
| 20260905224833 | 82 | 66 | 0.0 | 5.0 | 0.00 | 0.00 | 0.00 | 76 | 1014.8 |
| 20260905224709 | 82 | 66 | 0.0 | 7.0 | 0.00 | 0.00 | 0.00 | 76 | 1015.0 |
| 20260905224520 | 82 | 54 | 0.0 | 7.0 | 0.00 | 0.00 | 0.00 | 76 | 1014.8 |
| 20260905224403 | 82 | 39 | 0.0 | 7.0 | 0.00 | 0.00 | 0.00 | 76 | 1014.7 |
| 20260905224213 | 82 | 38 | 0.0 | 7.0 | 0.00 | 0.00 | 0.00 | 76 | 1014.8 |
| 20260905224012 | 82 | 31 | 0.0 | 7.0 | 0.00 | 0.00 | 0.00 | 76 | 1014.7 |
| 20260905223902 | 82 | 30 | 0.0 | 7.0 | 0.00 | 0.00 | 0.00 | 76 | 1014.7 |
| 20260905223808 | 82 | 48 | 0.0 | 7.0 | 0.00 | 0.00 | 0.00 | 76 | 1014.7 |
| 20260905223605 | 0 | 42 | 0.0 | 0.0 | 0.00 | 0.00 | 0.00 | 1014.7 | |
| 20260905223407 | 0 | 0.0 | 0.0 | 0.00 | 0.00 | 0.00 | 1014.6 | ||
| 20260905223143 | 0 | 0.0 | 0.0 | 0.00 | 0.00 | 0.00 | |||
| 20260905223135 | 0 | 0.0 | 0.0 | 0.00 | 0.00 | 0.00 | |||
| 20260905222935 | 0 | 0.0 | 0.0 | 0.00 | 0.00 | 0.00 | |||
| 20260905222634 | 0 | 0.0 | 0.0 | 0.00 | 0.00 | 0.00 | |||
| 20260905222406 | 0 | 0.0 | 0.0 | 0.00 | 0.00 | 0.00 | |||
| 20260905222206 | 0 | 0.0 | 0.0 | 0.00 | 0.00 | 0.00 | |||
| 20260905222107 | 0 | 0.0 | 0.0 | 0.00 | 0.00 | 0.00 | 1014.5 | ||
| 20260905222005 | 0 | 0.0 | 0.0 | 0.00 | 0.00 | 0.00 | 1014.5 | ||
| 20260905221805 | 0 | 0.0 | 0.0 | 0.00 | 0.00 | 0.00 | 1014.5 | ||
| 20260905221637 | 82 | 86 | 0.0 | 0.0 | 0.00 | 0.00 | 0.00 | 79 | 1014.5 |
| 20260905221536 | 82 | 86 | 0.0 | 0.0 | 0.00 | 0.00 | 0.00 | 79 | 1014.5 |
| 20260905221334 | 82 | 86 | 0.0 | 0.0 | 0.00 | 0.00 | 0.00 | 79 | 1014.5 |
| 20260905221235 | 82 | 86 | 0.0 | 0.0 | 0.00 | 0.00 | 0.00 | 79 | 1014.5 |
| 20260905221033 | 82 | 86 | 0.0 | 0.0 | 0.00 | 0.00 | 0.00 | 79 | 1014.5 |
| 20260905220930 | 82 | 86 | 0.0 | 0.0 | 0.00 | 0.00 | 0.00 | 79 | 1014.5 |
| 20260905220728 | 82 | 86 | 0.0 | 0.0 | 0.00 | 0.00 | 0.00 | 79 | 1014.6 |
| 20260905220529 | 82 | 38 | 0.0 | 0.0 | 0.00 | 0.00 | 0.00 | 78 | 1014.7 |
| 20260905220509 | 82 | 0 | 0.0 | 0.0 | 0.00 | 0.00 | 0.00 | 78 | 1014.8 |
| 20260905220306 | 81 | 63 | 0.0 | 0.0 | 0.00 | 0.00 | 0.00 | 78 | 1014.8 |
| 20260905220200 | 81 | 61 | 0.0 | 0.0 | 0.00 | 0.00 | 0.00 | 78 | 1015.0 |
| 20260905220031 | 81 | 71 | 0.0 | 0.0 | 0.00 | 0.00 | 0.00 | 79 | 1015.0 |
| 20260905215901 | 81 | 72 | 0.0 | 0.0 | 0.00 | 0.00 | 0.00 | 78 | 1015.0 |
| 20260905215805 | 81 | 25 | 0.0 | 0.0 | 0.00 | 0.00 | 0.00 | 80 | 1014.8 |
| 20260905215529 | 81 | 25 | 0.0 | 0.0 | 0.00 | 0.00 | 0.00 | 80 | 1015.0 |
| 20260905215432 | 81 | 79 | 0.0 | 0.0 | 0.00 | 0.00 | 0.00 | 80 | 1015.0 |
| 20260905215231 | 81 | 39 | 0.0 | 0.0 | 0.00 | 0.00 | 0.00 | 80 | 1015.0 |
| 20260905215035 | 81 | 58 | 0.0 | 0.0 | 0.00 | 0.00 | 0.00 | 80 | 1015.0 |
| 20260905214829 | 81 | 34 | 0.0 | 0.0 | 0.00 | 0.00 | 0.00 | 80 | 1015.0 |
| 20260905214730 | 81 | 49 | 0.0 | 0.0 | 0.00 | 0.00 | 0.00 | 81 | 1015.1 |
| 20260905214514 | 81 | 37 | 0.0 | 0.0 | 0.00 | 0.00 | 0.00 | 81 | 1015.1 |
| 20260905214429 | 81 | 35 | 0.0 | 0.0 | 0.00 | 0.00 | 0.00 | 80 | 1015.1 |
| 20260905214233 | 81 | 65 | 0.0 | 0.0 | 0.00 | 0.00 | 0.00 | 80 | 1015.1 |
| 20260905214128 | 81 | 37 | 0.0 | 0.0 | 0.00 | 0.00 | 0.00 | 80 | 1015.2 |
| 20260905214013 | 81 | 37 | 0.0 | 0.0 | 0.00 | 0.00 | 0.00 | 80 | 1015.2 |
| 20260905213830 | 81 | 35 | 0.0 | 0.0 | 0.00 | 0.00 | 0.00 | 80 | 1015.2 |
| 20260905213758 | 81 | 24 | 0.0 | 0.0 | 0.00 | 0.00 | 0.00 | 80 | 1015.3 |
| 20260905213739 | 81 | 24 | 0.0 | 0.0 | 0.00 | 0.00 | 0.00 | 80 | 1015.4 |
| 20260905213500 | 81 | 24 | 0.0 | 0.0 | 0.00 | 0.00 | 0.00 | 80 | 1015.3 |
| 20260905213150 | 81 | 32 | 0.0 | 0.0 | 0.00 | 0.00 | 0.00 | 81 | 1015.3 |
| 20260905212933 | 81 | 45 | 0.0 | 0.0 | 0.00 | 0.00 | 0.00 | 81 | 1015.2 |
| 20260905212749 | 81 | 45 | 0.0 | 0.0 | 0.00 | 0.00 | 0.00 | 81 | 1015.2 |
| 20260905212649 | 81 | 45 | 0.0 | 0.0 | 0.00 | 0.00 | 0.00 | 80 | 1015.2 |
| 20260905212433 | 81 | 44 | 0.0 | 0.0 | 0.00 | 0.00 | 0.00 | 80 | 1015.2 |
| 20260905212348 | 81 | 45 | 0.0 | 0.0 | 0.00 | 0.00 | 0.00 | 80 | 1015.1 |
| 20260905212149 | 81 | 47 | 0.0 | 0.0 | 0.00 | 0.00 | 0.00 | 79 | 1015.1 |
| 20260905212038 | 81 | 44 | 0.0 | 0.0 | 0.00 | 0.00 | 0.00 | 80 | 1015.1 |
| 20260905211934 | 81 | 44 | 0.0 | 0.0 | 0.00 | 0.00 | 0.00 | 80 | 1015.1 |
| 20260905211731 | 81 | 34 | 0.0 | 0.0 | 0.00 | 0.00 | 0.00 | 80 | 1015.1 |
| 20260905211531 | 82 | 25 | 0.0 | 0.0 | 0.00 | 0.00 | 0.00 | 80 | 1015.1 |
| 20260905211431 | 82 | 0 | 0.0 | 0.0 | 0.00 | 0.00 | 0.00 | 79 | 1015.1 |
| 20260905211331 | 82 | 58 | 0.0 | 0.0 | 0.00 | 0.00 | 0.00 | 79 | 1015.1 |
| 20260905211231 | 82 | 42 | 0.0 | 0.0 | 0.00 | 0.00 | 0.00 | 79 | 1015.2 |
| 20260905210931 | 82 | 58 | 0.0 | 0.0 | 0.00 | 0.00 | 0.00 | 79 | 1015.1 |
| 20260905210729 | 82 | 8 | 0.0 | 0.0 | 0.00 | 0.00 | 0.00 | 79 | 1015.1 |
| 20260905210630 | 82 | 48 | 0.0 | 0.0 | 0.00 | 0.00 | 0.00 | 78 | 1015.1 |
| 20260905210449 | 82 | 69 | 0.0 | 0.0 | 0.00 | 0.00 | 0.00 | 78 | 1015.1 |
| 20260905210430 | 82 | 35 | 0.0 | 0.0 | 0.00 | 0.00 | 0.00 | 78 | 1015.1 |
| 20260905210129 | 82 | 45 | 0.0 | 0.0 | 0.00 | 0.00 | 0.00 | 78 | 1015.1 |
| 20260905205934 | 82 | 34 | 0.0 | 0.0 | 0.00 | 0.00 | 0.00 | 77 | 1015.1 |
| 20260905205737 | 82 | 17 | 0.0 | 0.0 | 0.00 | 0.00 | 0.00 | 78 | 1015.1 |
| 20260905205732 | 82 | 59 | 0.0 | 0.0 | 0.00 | 0.00 | 0.00 | 77 | 1015.1 |
| 20260905205723 | 83 | 13 | 0.0 | 0.0 | 0.00 | 0.00 | 0.00 | 78 | 1015.1 |
| 20260905205701 | 82 | 71 | 0.0 | 0.0 | 0.00 | 0.00 | 0.00 | 77 | 1015.1 |
| 20260905205130 | 0 | 8 | 0.0 | 0.0 | 0.00 | 0.00 | 0.00 | 1015.0 | |
| 20260905205040 | 0 | 0.0 | 0.0 | 0.00 | 0.00 | 0.00 | 1015.0 | ||
| 20260905204935 | 0 | 0.0 | 0.0 | 0.00 | 0.00 | 0.00 | 1015.0 | ||
| 20260905204826 | 0 | 0.0 | 0.0 | 0.00 | 0.00 | 0.00 | |||
| 20260905204535 | 0 | 0.0 | 0.0 | 0.00 | 0.00 | 0.00 | |||
| 20260905204335 | 0 | 0.0 | 0.0 | 0.00 | 0.00 | 0.00 | |||
| 20260905204134 | 0 | 0.0 | 0.0 | 0.00 | 0.00 | 0.00 | |||
| 20260905204103 | 0 | 0.0 | 0.0 | 0.00 | 0.00 | 0.00 | |||
| 20260905203938 | 0 | 0.0 | 0.0 | 0.00 | 0.00 | 0.00 | |||
| 20260905203934 | 0 | 0.0 | 0.0 | 0.00 | 0.00 | 0.00 | |||
| 20260905203844 | 0 | 0.0 | 0.0 | 0.00 | 0.00 | 0.00 | |||
| 20260905203507 | 0 | 0.0 | 0.0 | 0.00 | 0.00 | 0.00 | 1015.4 | ||
| 20260905203406 | 0 | 0.0 | 0.0 | 0.00 | 0.00 | 0.00 | 1015.4 | ||
| 20260905203106 | 0 | 28 | 0.0 | 0.0 | 0.00 | 0.00 | 0.00 | 1015.4 | |
| 20260905202852 | 83 | 28 | 0.0 | 7.0 | 0.00 | 0.00 | 0.00 | 78 | 1015.5 |
| 20260905202847 | 83 | 28 | 0.0 | 0.0 | 0.00 | 0.00 | 0.00 | 78 | 1015.4 |
| 20260905202829 | 83 | 28 | 0.0 | 7.0 | 0.00 | 0.00 | 0.00 | 78 | 1015.4 |
| 20260905202431 | 83 | 28 | 0.0 | 7.0 | 0.00 | 0.00 | 0.00 | 78 | 1015.4 |
| 20260905202232 | 83 | 28 | 0.0 | 10.0 | 0.00 | 0.00 | 0.00 | 78 | 1015.3 |
| 20260905202039 | 83 | 66 | 0.0 | 10.0 | 0.00 | 0.00 | 0.00 | 78 | 1015.6 |
| 20260905202004 | 83 | 44 | 0.0 | 10.0 | 0.00 | 0.00 | 0.00 | 78 | 1015.5 |
| 20260905201855 | 83 | 41 | 0.0 | 10.0 | 0.00 | 0.00 | 0.00 | 77 | 1015.6 |
| 20260905201830 | 83 | 31 | 0.0 | 10.0 | 0.00 | 0.00 | 0.00 | 77 | 1015.6 |
| 20260905201820 | 83 | 75 | 0.0 | 10.0 | 0.00 | 0.00 | 0.00 | 77 | 1015.6 |
| 20260905201351 | 83 | 121 | 0.0 | 10.0 | 0.00 | 0.00 | 0.00 | 77 | 1015.6 |
| 20260905201139 | 83 | 61 | 0.0 | 11.0 | 0.00 | 0.00 | 0.00 | 77 | 1015.7 |
| 20260905201052 | 83 | 45 | 0.0 | 11.0 | 0.00 | 0.00 | 0.00 | 77 | 1015.7 |
| 20260905201041 | 83 | 68 | 0.0 | 11.0 | 0.00 | 0.00 | 0.00 | 77 | 1015.7 |
| 20260905200737 | 83 | 61 | 0.0 | 11.0 | 0.00 | 0.00 | 0.00 | 77 | 1015.8 |
| 20260905200537 | 83 | 48 | 0.0 | 11.0 | 0.00 | 0.00 | 0.00 | 78 | 1015.9 |
| 20260905200332 | 83 | 65 | 0.0 | 11.0 | 0.00 | 0.00 | 0.00 | 77 | 1015.9 |
| 20260905200237 | 83 | 89 | 0.0 | 9.0 | 0.00 | 0.00 | 0.00 | 78 | 1016.0 |
| 20260905200100 | 83 | 65 | 0.0 | 9.0 | 0.00 | 0.00 | 0.00 | 77 | 1016.1 |
| 20260905195933 | 83 | 96 | 0.0 | 7.0 | 0.00 | 0.00 | 0.00 | 77 | 1016.2 |
| 20260905195728 | 0 | 44 | 0.0 | 4.0 | 0.00 | 0.00 | 0.00 | 1016.2 | |
| 20260905195634 | 0 | 0.0 | 0.0 | 0.00 | 0.00 | 0.00 | 1016.2 | ||
| 20260905195531 | 0 | 0.0 | 0.0 | 0.00 | 0.00 | 0.00 | 1016.2 | ||
| 20260905195235 | 0 | 0.0 | 0.0 | 0.00 | 0.00 | 0.00 | |||
| 20260905195038 | 0 | 0.0 | 0.0 | 0.00 | 0.00 | 0.00 | |||
| 20260905195003 | 0 | 0.0 | 0.0 | 0.00 | 0.00 | 0.00 | |||
| 20260905194834 | 0 | 0.0 | 0.0 | 0.00 | 0.00 | 0.00 | |||
| 20260905194734 | 0 | 0.0 | 0.0 | 0.00 | 0.00 | 0.00 | |||
| 20260905194407 | 0 | 0.0 | 0.0 | 0.00 | 0.00 | 0.00 | |||
| 20260905194306 | 0 | 0.0 | 0.0 | 0.00 | 0.00 | 0.00 | 1016.5 | ||
| 20260905194010 | 0 | 0.0 | 0.0 | 0.00 | 0.00 | 0.00 | 1016.5 | ||
| 20260905193930 | 0 | 0.0 | 0.0 | 0.00 | 0.00 | 0.00 | 1016.5 | ||
| 20260905193735 | 0 | 0.0 | 0.0 | 0.00 | 0.00 | 0.00 | 1016.5 | ||
| 20260905193535 | 83 | 48 | 0.0 | 4.0 | 0.00 | 0.00 | 0.00 | 78 | 1016.5 |
| 20260905193404 | 83 | 48 | 0.0 | 6.0 | 0.00 | 0.00 | 0.00 | 78 | 1016.5 |
| 20260905193335 | 83 | 48 | 0.0 | 6.0 | 0.00 | 0.00 | 0.00 | 78 | 1016.5 |
| 20260905193231 | 83 | 48 | 0.0 | 6.0 | 0.00 | 0.00 | 0.00 | 78 | 1016.4 |
| 20260905192909 | 83 | 48 | 0.0 | 6.0 | 0.00 | 0.00 | 0.00 | 78 | 1016.4 |
| 20260905192731 | 83 | 41 | 0.0 | 6.0 | 0.00 | 0.00 | 0.00 | 78 | 1016.4 |
| 20260905192438 | 83 | 21 | 0.0 | 4.0 | 0.00 | 0.00 | 0.00 | 79 | 1016.5 |
| 20260905192400 | 83 | 61 | 0.0 | 4.0 | 0.00 | 0.00 | 0.00 | 79 | 1016.5 |
| 20260905192235 | 83 | 51 | 0.0 | 4.0 | 0.00 | 0.00 | 0.00 | 81 | 1016.5 |
| 20260905192151 | 83 | 47 | 0.0 | 4.0 | 0.00 | 0.00 | 0.00 | 81 | 1016.6 |
| 20260905192137 | 83 | 25 | 0.0 | 4.0 | 0.00 | 0.00 | 0.00 | 81 | 1016.6 |
| 20260905191834 | 83 | 59 | 0.0 | 4.0 | 0.00 | 0.00 | 0.00 | 81 | 1016.6 |
| 20260905191727 | 82 | 25 | 0.0 | 0.0 | 0.00 | 0.00 | 0.00 | 81 | 1016.6 |
| 20260905191430 | 82 | 25 | 0.0 | 0.0 | 0.00 | 0.00 | 0.00 | 81 | 1016.7 |
| 20260905191405 | 82 | 25 | 0.0 | 0.0 | 0.00 | 0.00 | 0.00 | 81 | 1016.8 |
| 20260905191310 | 82 | 27 | 0.0 | 0.0 | 0.00 | 0.00 | 0.00 | 81 | 1016.9 |
| 20260905191122 | 82 | 158 | 0.0 | 0.0 | 0.00 | 0.00 | 0.00 | 81 | 1016.8 |
| 20260905191106 | 82 | 158 | 0.0 | 0.0 | 0.00 | 0.00 | 0.00 | 81 | 1016.8 |
| 20260905190733 | 81 | 161 | 0.0 | 0.0 | 0.00 | 0.00 | 0.00 | 82 | 1016.9 |
| 20260905190534 | 81 | 39 | 0.0 | 0.0 | 0.00 | 0.00 | 0.00 | 82 | 1016.9 |
| 20260905190333 | 81 | 37 | 0.0 | 0.0 | 0.00 | 0.00 | 0.00 | 81 | 1016.9 |
| 20260905190135 | 81 | 37 | 0.0 | 4.0 | 0.00 | 0.00 | 0.00 | 83 | 1017.0 |
| 20260905190118 | 81 | 44 | 0.0 | 4.0 | 0.00 | 0.00 | 0.00 | 82 | 1017.0 |
| 20260905190058 | 81 | 44 | 0.0 | 4.0 | 0.00 | 0.00 | 0.00 | 82 | 1017.1 |
| 20260905185730 | 81 | 45 | 0.0 | 4.0 | 0.00 | 0.00 | 0.00 | 82 | 1017.0 |
| 20260905185623 | 81 | 45 | 0.0 | 4.0 | 0.00 | 0.00 | 0.00 | 82 | 1017.1 |
| 20260905185422 | 81 | 47 | 0.0 | 4.0 | 0.00 | 0.00 | 0.00 | 82 | 1017.0 |
| 20260905185331 | 81 | 47 | 0.0 | 4.0 | 0.00 | 0.00 | 0.00 | 82 | 1017.0 |
| 20260905185126 | 81 | 32 | 0.0 | 3.0 | 0.00 | 0.00 | 0.00 | 82 | 1017.1 |
| 20260905184927 | 81 | 35 | 0.0 | 2.0 | 0.00 | 0.00 | 0.00 | 83 | 1017.0 |
| 20260905184831 | 81 | 45 | 0.0 | 2.0 | 0.00 | 0.00 | 0.00 | 83 | 1017.0 |
| 20260905184726 | 81 | 45 | 0.0 | 2.0 | 0.00 | 0.00 | 0.00 | 83 | 1017.0 |
| 20260905184528 | 0 | 44 | 0.0 | 2.0 | 0.00 | 0.00 | 0.00 | 1017.0 | |
| 20260905184330 | 0 | 0.0 | 0.0 | 0.00 | 0.00 | 0.00 | 1017.0 | ||
| 20260905184214 | 0 | 0.0 | 0.0 | 0.00 | 0.00 | 0.00 | |||
| 20260905184106 | 0 | 0.0 | 0.0 | 0.00 | 0.00 | 0.00 | |||
| 20260905184009 | 0 | 0.0 | 0.0 | 0.00 | 0.00 | 0.00 | |||
| 20260905183636 | 0 | 0.0 | 0.0 | 0.00 | 0.00 | 0.00 | |||
| 20260905183603 | 0 | 0.0 | 0.0 | 0.00 | 0.00 | 0.00 | |||
| 20260905183434 | 0 | 0.0 | 0.0 | 0.00 | 0.00 | 0.00 | |||
| 20260905183234 | 0 | 0.0 | 0.0 | 0.00 | 0.00 | 0.00 | |||
| 20260905183102 | 0 | 0.0 | 0.0 | 0.00 | 0.00 | 0.00 | |||
| 20260905183035 | 0 | 0.0 | 0.0 | 0.00 | 0.00 | 0.00 | |||
| 20260905182807 | 0 | 0.0 | 0.0 | 0.00 | 0.00 | 0.00 | 1017.1 | ||
| 20260905182709 | 0 | 0.0 | 0.0 | 0.00 | 0.00 | 0.00 | 1017.1 | ||
| 20260905182531 | 0 | 0.0 | 0.0 | 0.00 | 0.00 | 0.00 | 1017.1 | ||
| 20260905182507 | 80 | 216 | 0.0 | 0.0 | 0.00 | 0.00 | 0.00 | 84 | 1017.1 |
| 20260905182136 | 80 | 216 | 0.0 | 1.0 | 0.00 | 0.00 | 0.00 | 84 | 1017.1 |
| 20260905182030 | 80 | 216 | 0.0 | 2.0 | 0.00 | 0.00 | 0.00 | 84 | 1017.1 |
| 20260905181925 | 80 | 216 | 0.0 | 2.0 | 0.00 | 0.00 | 0.00 | 84 | 1017.1 |
| 20260905181726 | 80 | 216 | 0.0 | 2.0 | 0.00 | 0.00 | 0.00 | 84 | 1017.1 |
| 20260905181527 | 80 | 216 | 0.0 | 2.0 | 0.00 | 0.00 | 0.00 | 84 | 1017.1 |
| 20260905181325 | 80 | 217 | 0.0 | 2.0 | 0.00 | 0.00 | 0.00 | 82 | 1017.1 |
| 20260905181141 | 80 | 227 | 0.0 | 3.0 | 0.00 | 0.00 | 0.00 | 84 | 1017.2 |
| 20260905181125 | 80 | 217 | 0.0 | 2.0 | 0.00 | 0.00 | 0.00 | 82 | 1017.2 |
| 20260905181026 | 80 | 216 | 0.0 | 3.0 | 0.00 | 0.00 | 0.00 | 84 | 1017.2 |
| 20260905180726 | 79 | 305 | 0.0 | 4.0 | 0.00 | 0.00 | 0.00 | 86 | 1017.3 |
| 20260905180529 | 79 | 305 | 0.0 | 4.0 | 0.00 | 0.00 | 0.00 | 86 | 1017.2 |
| 20260905180325 | 79 | 305 | 0.0 | 4.0 | 0.00 | 0.00 | 0.00 | 86 | 1017.2 |
| 20260905180125 | 78 | 44 | 0.0 | 4.0 | 0.00 | 0.00 | 0.00 | 86 | 1017.2 |
| 20260905180030 | 78 | 178 | 0.0 | 3.0 | 0.00 | 0.00 | 0.00 | 86 | 1017.2 |
| 20260905175925 | 78 | 178 | 0.0 | 3.0 | 0.00 | 0.00 | 0.00 | 86 | 1017.2 |
| 20260905175731 | 0 | 0.0 | 0.0 | 0.00 | 0.00 | 0.00 | 1017.4 | ||
| 20260905175724 | 78 | 171 | 0.0 | 3.0 | 0.00 | 0.00 | 0.00 | 85 | 1017.3 |
| 20260905175526 | 0 | 0.0 | 0.0 | 0.00 | 0.00 | 0.00 | 1017.4 | ||
| 20260905175307 | 0 | 0.0 | 0.0 | 0.00 | 0.00 | 0.00 | |||
| 20260905175038 | 0 | 0.0 | 0.0 | 0.00 | 0.00 | 0.00 | |||
| 20260905175003 | 0 | 0.0 | 0.0 | 0.00 | 0.00 | 0.00 | |||
| 20260905174835 | 0 | 0.0 | 0.0 | 0.00 | 0.00 | 0.00 | |||
| 20260905174635 | 0 | 0.0 | 0.0 | 0.00 | 0.00 | 0.00 | |||
| 20260905174502 | 0 | 0.0 | 0.0 | 0.00 | 0.00 | 0.00 | |||
| 20260905174434 | 0 | 0.0 | 0.0 | 0.00 | 0.00 | 0.00 | |||
| 20260905174207 | 0 | 0.0 | 0.0 | 0.00 | 0.00 | 0.00 | 1017.7 | ||
| 20260905174010 | 0 | 0.0 | 0.0 | 0.00 | 0.00 | 0.00 | 1017.7 | ||
| 20260905173932 | 0 | 0.0 | 0.0 | 0.00 | 0.00 | 0.00 | 1017.7 | ||
| 20260905173905 | 0 | 0.0 | 0.0 | 0.00 | 0.00 | 0.00 | 1017.7 | ||
| 20260905173607 | 76 | 20 | 0.0 | 0.0 | 0.00 | 0.00 | 0.00 | 91 | 1017.7 |
| 20260905173447 | 76 | 20 | 0.0 | 0.0 | 0.00 | 0.00 | 0.00 | 91 | 1017.7 |
| 20260905173438 | 76 | 20 | 0.0 | 0.0 | 0.00 | 0.00 | 0.00 | 91 | 1017.7 |
| 20260905173135 | 76 | 20 | 0.0 | 0.0 | 0.00 | 0.00 | 0.00 | 91 | 1017.8 |
| 20260905172920 | 76 | 20 | 0.0 | 0.0 | 0.00 | 0.00 | 0.00 | 91 | 1017.8 |
| 20260905172735 | 76 | 20 | 0.0 | 0.0 | 0.00 | 0.00 | 0.00 | 91 | 1017.8 |
| 20260905172532 | 76 | 14 | 0.0 | 2.0 | 0.00 | 0.00 | 0.00 | 91 | 1017.9 |
| 20260905172433 | 76 | 47 | 0.0 | 2.0 | 0.00 | 0.00 | 0.00 | 91 | 1017.9 |
| 20260905172412 | 76 | 41 | 0.0 | 2.0 | 0.00 | 0.00 | 0.00 | 91 | 1017.9 |
| 20260905172130 | 76 | 49 | 0.0 | 3.0 | 0.00 | 0.00 | 0.00 | 91 | 1018.0 |
| 20260905172027 | 76 | 52 | 0.0 | 3.0 | 0.00 | 0.00 | 0.00 | 92 | 1018.0 |
| 20260905171911 | 76 | 41 | 0.0 | 3.0 | 0.00 | 0.00 | 0.00 | 92 | 1017.9 |
| 20260905171727 | 76 | 37 | 0.0 | 3.0 | 0.00 | 0.00 | 0.00 | 91 | 1017.9 |
| 20260905171527 | 75 | 35 | 0.0 | 3.0 | 0.00 | 0.00 | 0.00 | 92 | 1018.0 |
| 20260905171413 | 75 | 34 | 0.0 | 5.0 | 0.00 | 0.00 | 0.00 | 92 | 1018.0 |
| 20260905171323 | 75 | 35 | 0.0 | 5.0 | 0.00 | 0.00 | 0.00 | 92 | 1018.0 |
| 20260905171122 | 75 | 32 | 0.0 | 5.0 | 0.00 | 0.00 | 0.00 | 92 | 1018.0 |
| 20260905171028 | 75 | 34 | 0.0 | 5.0 | 0.00 | 0.00 | 0.00 | 92 | 1018.0 |
| 20260905170909 | 75 | 34 | 0.0 | 5.0 | 0.00 | 0.00 | 0.00 | 92 | 1018.0 |
| 20260905170721 | 75 | 35 | 0.0 | 5.0 | 0.00 | 0.00 | 0.00 | 92 | 1018.0 |
| 20260905170621 | 75 | 35 | 0.0 | 5.0 | 0.00 | 0.00 | 0.00 | 92 | 1018.0 |
| 20260905170407 | 75 | 13 | 0.0 | 4.0 | 0.00 | 0.00 | 0.00 | 92 | 1018.1 |
| 20260905170320 | 75 | 11 | 0.0 | 4.0 | 0.00 | 0.00 | 0.00 | 92 | 1018.1 |
| 20260905170120 | 75 | 7 | 0.0 | 4.0 | 0.00 | 0.00 | 0.00 | 93 | 1018.1 |
| 20260905165923 | 75 | 68 | 0.0 | 3.0 | 0.00 | 0.00 | 0.00 | 93 | 1018.2 |
| 20260905165907 | 75 | 66 | 0.0 | 3.0 | 0.00 | 0.00 | 0.00 | 93 | 1018.2 |
| 20260905165721 | 75 | 20 | 0.0 | 1.0 | 0.00 | 0.00 | 0.00 | 93 | 1018.1 |
| 20260905165513 | 74 | 48 | 0.0 | 0.0 | 0.00 | 0.00 | 0.00 | 94 | 1018.1 |
| 20260905165406 | 74 | 47 | 0.0 | 0.0 | 0.00 | 0.00 | 0.00 | 94 | 1018.1 |
| 20260905165312 | 74 | 45 | 0.0 | 0.0 | 0.00 | 0.00 | 0.00 | 94 | 1018.1 |
| 20260905165201 | 74 | 34 | 0.0 | 0.0 | 0.00 | 0.00 | 0.00 | 94 | 1018.1 |
| 20260905164910 | 0 | 0.0 | 0.0 | 0.00 | 0.00 | 0.00 | 1018.1 | ||
| 20260905164737 | 0 | 0.0 | 0.0 | 0.00 | 0.00 | 0.00 | |||
| 20260905164635 | 0 | 0.0 | 0.0 | 0.00 | 0.00 | 0.00 | |||
| 20260905164407 | 0 | 0.0 | 0.0 | 0.00 | 0.00 | 0.00 | |||
| 20260905164206 | 0 | 0.0 | 0.0 | 0.00 | 0.00 | 0.00 | |||
| 20260905164107 | 0 | 0.0 | 0.0 | 0.00 | 0.00 | 0.00 | |||
| 20260905164006 | 0 | 0.0 | 0.0 | 0.00 | 0.00 | 0.00 | |||
| 20260905163735 | 0 | 0.0 | 0.0 | 0.00 | 0.00 | 0.00 | |||
| 20260905163637 | 0 | 0.0 | 0.0 | 0.00 | 0.00 | 0.00 | 1018.1 | ||
| 20260905163606 | 0 | 0.0 | 0.0 | 0.00 | 0.00 | 0.00 | 1018.1 | ||
| 20260905163334 | 0 | 0.0 | 0.0 | 0.00 | 0.00 | 0.00 | 1018.1 | ||
| 20260905163235 | 0 | 0.0 | 0.0 | 0.00 | 0.00 | 0.00 | 1018.1 | ||
| 20260905163106 | 0 | 0.0 | 0.0 | 0.00 | 0.00 | 0.00 | 1018.1 | ||
| 20260905162907 | 73 | 37 | 0.0 | 0.0 | 0.00 | 0.00 | 0.00 | 96 | 1018.1 |
| 20260905162651 | 73 | 37 | 0.0 | 0.0 | 0.00 | 0.00 | 0.00 | 96 | 1018.1 |
| 20260905162553 | 73 | 37 | 0.0 | 0.0 | 0.00 | 0.00 | 0.00 | 96 | 1018.1 |
| 20260905162451 | 73 | 37 | 0.0 | 0.0 | 0.00 | 0.00 | 0.00 | 96 | 1018.2 |
| 20260905162232 | 73 | 37 | 0.0 | 0.0 | 0.00 | 0.00 | 0.00 | 96 | 1018.0 |
| 20260905162134 | 73 | 38 | 0.0 | 0.0 | 0.00 | 0.00 | 0.00 | 96 | 1018.0 |
| 20260905162032 | 73 | 38 | 0.0 | 0.0 | 0.00 | 0.00 | 0.00 | 96 | 1018.0 |
| 20260905161831 | 73 | 41 | 0.0 | 0.0 | 0.00 | 0.00 | 0.00 | 96 | 1017.9 |
| 20260905161630 | 73 | 75 | 0.0 | 0.0 | 0.00 | 0.00 | 0.00 | 97 | 1017.8 |
| 20260905161542 | 73 | 63 | 0.0 | 0.0 | 0.00 | 0.00 | 0.00 | 97 | 1017.7 |
| 20260905161530 | 73 | 21 | 0.0 | 0.0 | 0.00 | 0.00 | 0.00 | 97 | 1017.8 |
| 20260905161230 | 73 | 61 | 0.0 | 0.0 | 0.00 | 0.00 | 0.00 | 97 | 1017.8 |
| 20260905161044 | 73 | 61 | 0.0 | 0.0 | 0.00 | 0.00 | 0.00 | 97 | 1017.7 |
| 20260905160834 | 73 | 3 | 0.0 | 0.0 | 0.00 | 0.00 | 0.00 | 97 | 1017.7 |
| 20260905160633 | 73 | 0 | 0.0 | 0.0 | 0.00 | 0.00 | 0.00 | 97 | 1017.7 |
| 20260905160608 | 73 | 54 | 0.0 | 0.0 | 0.00 | 0.00 | 0.00 | 97 | 1017.7 |
| 20260905160554 | 73 | 54 | 0.0 | 0.0 | 0.00 | 0.00 | 0.00 | 97 | 1017.8 |
| 20260905160207 | 73 | 47 | 0.0 | 0.0 | 0.00 | 0.00 | 0.00 | 97 | 1017.8 |
| 20260905160116 | 72 | 41 | 0.0 | 0.0 | 0.00 | 0.00 | 0.00 | 98 | 1017.7 |
| 20260905160013 | 72 | 41 | 0.0 | 0.0 | 0.00 | 0.00 | 0.00 | 98 | 1017.7 |
| 20260905155806 | 72 | 41 | 0.0 | 0.0 | 0.00 | 0.00 | 0.00 | 98 | 1017.7 |
| 20260905155549 | 72 | 41 | 0.0 | 0.0 | 0.00 | 0.00 | 0.00 | 98 | 1017.7 |
| 20260905155454 | 72 | 44 | 0.0 | 0.0 | 0.00 | 0.00 | 0.00 | 98 | 1017.7 |
| 20260905155349 | 72 | 42 | 0.0 | 0.0 | 0.00 | 0.00 | 0.00 | 98 | 1017.7 |
| 20260905155241 | 0 | 0.0 | 0.0 | 0.00 | 0.00 | 0.00 | 1017.7 | ||
| 20260905155228 | 72 | 45 | 0.0 | 0.0 | 0.00 | 0.00 | 0.00 | 98 | 1017.7 |
| 20260905154631 | 0 | 0.0 | 0.0 | 0.00 | 0.00 | 0.00 | |||
| 20260905154500 | 0 | 0.0 | 0.0 | 0.00 | 0.00 | 0.00 | |||
| 20260905154334 | 0 | 0.0 | 0.0 | 0.00 | 0.00 | 0.00 | |||
| 20260905154203 | 0 | 0.0 | 0.0 | 0.00 | 0.00 | 0.00 | |||
| 20260905154110 | 0 | 0.0 | 0.0 | 0.00 | 0.00 | 0.00 | |||
| 20260905154100 | 0 | 0.0 | 0.0 | 0.00 | 0.00 | 0.00 | |||
| 20260905153804 | 0 | 0.0 | 0.0 | 0.00 | 0.00 | 0.00 | |||
| 20260905153631 | 0 | 0.0 | 0.0 | 0.00 | 0.00 | 0.00 | 1017.9 | ||
| 20260905153307 | 0 | 0.0 | 0.0 | 0.00 | 0.00 | 0.00 | 1017.9 | ||
| 20260905153132 | 0 | 0.0 | 0.0 | 0.00 | 0.00 | 0.00 | 1017.9 | ||
| 20260905153046 | 71 | 35 | 0.0 | 0.0 | 0.00 | 0.00 | 0.00 | 98 | 1017.9 |
| 20260905153034 | 71 | 35 | 0.0 | 0.0 | 0.00 | 0.00 | 0.00 | 98 | 1017.9 |
| 20260905152704 | 71 | 35 | 0.0 | 0.0 | 0.00 | 0.00 | 0.00 | 98 | 1017.9 |
| 20260905152505 | 71 | 35 | 0.0 | 0.0 | 0.00 | 0.00 | 0.00 | 98 | 1017.9 |
| 20260905152406 | 71 | 35 | 0.0 | 0.0 | 0.00 | 0.00 | 0.00 | 98 | 1017.8 |
| 20260905152259 | 71 | 35 | 0.0 | 0.0 | 0.00 | 0.00 | 0.00 | 98 | 1017.8 |
| 20260905152204 | 71 | 35 | 0.0 | 4.0 | 0.00 | 0.00 | 0.00 | 98 | 1017.7 |
| 20260905151901 | 71 | 35 | 0.0 | 4.0 | 0.00 | 0.00 | 0.00 | 98 | 1017.8 |
| 20260905151801 | 71 | 35 | 0.0 | 4.0 | 0.00 | 0.00 | 0.00 | 98 | 1017.7 |
| 20260905151701 | 71 | 35 | 0.0 | 4.0 | 0.00 | 0.00 | 0.00 | 98 | 1017.7 |
| 20260905151502 | 71 | 35 | 0.0 | 4.0 | 0.00 | 0.00 | 0.00 | 98 | 1017.7 |
| 20260905151302 | 71 | 38 | 0.0 | 4.0 | 0.00 | 0.00 | 0.00 | 98 | 1017.6 |
| 20260905151146 | 0 | 27 | 0.0 | 2.0 | 0.00 | 0.00 | 0.00 | 1017.4 | |
| 20260905151101 | 71 | 25 | 0.0 | 2.0 | 0.00 | 0.00 | 0.00 | 98 | 1017.6 |
| 20260905151047 | 0 | 27 | 0.0 | 2.0 | 0.00 | 0.00 | 0.00 | 1017.5 | |
| 20260905151026 | 0 | 27 | 0.0 | 2.0 | 0.00 | 0.00 | 0.00 | 1017.5 | |
| 20260905150500 | 0 | 27 | 0.0 | 0.0 | 0.00 | 0.00 | 0.00 | 1017.4 | |
| 20260905150301 | 0 | 0.0 | 0.0 | 0.00 | 0.00 | 0.00 | 1017.4 | ||
| 20260905150201 | 0 | 0.0 | 0.0 | 0.00 | 0.00 | 0.00 | |||
| 20260905150157 | 0 | 0.0 | 0.0 | 0.00 | 0.00 | 0.00 | |||
| 20260905145835 | 0 | 0.0 | 0.0 | 0.00 | 0.00 | 0.00 | |||
| 20260905145611 | 0 | 0.0 | 0.0 | 0.00 | 0.00 | 0.00 | |||
| 20260905145406 | 0 | 0.0 | 0.0 | 0.00 | 0.00 | 0.00 | |||
| 20260905145206 | 0 | 0.0 | 0.0 | 0.00 | 0.00 | 0.00 | |||
| 20260905145126 | 0 | 0.0 | 0.0 | 0.00 | 0.00 | 0.00 | |||
| 20260905144833 | 0 | 0.0 | 0.0 | 0.00 | 0.00 | 0.00 | 1017.1 | ||
| 20260905144538 | 0 | 0.0 | 0.0 | 0.00 | 0.00 | 0.00 | 1017.1 | ||
| 20260905144436 | 71 | 61 | 0.0 | 0.0 | 0.00 | 0.00 | 0.00 | 98 | 1017.1 |
| 20260905144403 | 71 | 61 | 0.0 | 0.0 | 0.00 | 0.00 | 0.00 | 98 | 1017.1 |
| 20260905144119 | 71 | 61 | 0.0 | 0.0 | 0.00 | 0.00 | 0.00 | 98 | 1017.1 |
| 20260905144114 | 71 | 61 | 0.0 | 0.0 | 0.00 | 0.00 | 0.00 | 98 | 1017.1 |
| 20260905144049 | 71 | 61 | 0.0 | 0.0 | 0.00 | 0.00 | 0.00 | 98 | 1017.1 |
| 20260905143636 | 71 | 61 | 0.0 | 0.0 | 0.00 | 0.00 | 0.00 | 98 | 1017.2 |
| 20260905143437 | 71 | 61 | 0.0 | 0.0 | 0.00 | 0.00 | 0.00 | 98 | 1017.2 |
| 20260905143345 | 70 | 59 | 0.0 | 0.0 | 0.00 | 0.00 | 0.00 | 98 | 1017.2 |
| 20260905143336 | 70 | 59 | 0.0 | 0.0 | 0.00 | 0.00 | 0.00 | 98 | 1017.2 |
| 20260905143131 | 70 | 42 | 0.0 | 0.0 | 0.00 | 0.00 | 0.00 | 98 | 1017.1 |
| 20260905143120 | 70 | 68 | 0.0 | 0.0 | 0.00 | 0.00 | 0.00 | 98 | 1017.2 |
| 20260905142636 | 70 | 28 | 0.0 | 0.0 | 0.00 | 0.00 | 0.00 | 98 | 1017.1 |
| 20260905142437 | 70 | 47 | 0.0 | 0.0 | 0.00 | 0.00 | 0.00 | 98 | 1017.2 |
| 20260905142337 | 70 | 48 | 0.0 | 0.0 | 0.00 | 0.00 | 0.00 | 98 | 1017.1 |
| 20260905142236 | 70 | 14 | 0.0 | 0.0 | 0.00 | 0.00 | 0.00 | 98 | 1017.1 |
| 20260905142123 | 70 | 56 | 0.0 | 0.0 | 0.00 | 0.00 | 0.00 | 98 | 1017.1 |
| 20260905142114 | 70 | 41 | 0.0 | 0.0 | 0.00 | 0.00 | 0.00 | 98 | 1017.1 |
| 20260905141636 | 70 | 44 | 0.0 | 0.0 | 0.00 | 0.00 | 0.00 | 98 | 1017.1 |
| 20260905141439 | 70 | 44 | 0.0 | 0.0 | 0.00 | 0.00 | 0.00 | 98 | 1017.2 |
| 20260905141342 | 70 | 45 | 0.0 | 0.0 | 0.00 | 0.00 | 0.00 | 98 | 1017.2 |
| 20260905141333 | 70 | 45 | 0.0 | 0.0 | 0.00 | 0.00 | 0.00 | 98 | 1017.2 |
| 20260905141130 | 70 | 39 | 0.0 | 0.0 | 0.00 | 0.00 | 0.00 | 98 | 1017.2 |
| 20260905141116 | 70 | 41 | 0.0 | 0.0 | 0.00 | 0.00 | 0.00 | 98 | 1017.2 |
| 20260905140631 | 70 | 35 | 0.0 | 0.0 | 0.00 | 0.00 | 0.00 | 98 | 1017.2 |
| 20260905140435 | 70 | 35 | 0.0 | 0.0 | 0.00 | 0.00 | 0.00 | 98 | 1017.2 |
| 20260905140334 | 70 | 35 | 0.0 | 0.0 | 0.00 | 0.00 | 0.00 | 98 | 1017.2 |
| 20260905140230 | 70 | 37 | 0.0 | 0.0 | 0.00 | 0.00 | 0.00 | 98 | 1017.1 |
| 20260905140030 | 70 | 35 | 0.0 | 0.0 | 0.00 | 0.00 | 0.00 | 98 | 1017.2 |
| 20260905135935 | 70 | 44 | 0.0 | 0.0 | 0.00 | 0.00 | 0.00 | 98 | 1017.1 |
| 20260905135834 | 70 | 44 | 0.0 | 0.0 | 0.00 | 0.00 | 0.00 | 98 | 1017.1 |
| 20260905135633 | 70 | 34 | 0.0 | 0.0 | 0.00 | 0.00 | 0.00 | 98 | 1017.1 |
| 20260905135537 | 70 | 34 | 0.0 | 0.0 | 0.00 | 0.00 | 0.00 | 98 | 1017.2 |
| 20260905135332 | 70 | 34 | 0.0 | 0.0 | 0.00 | 0.00 | 0.00 | 98 | 1017.2 |
| 20260905135232 | 70 | 34 | 0.0 | 0.0 | 0.00 | 0.00 | 0.00 | 98 | 1017.2 |
| 20260905135033 | 70 | 32 | 0.0 | 0.0 | 0.00 | 0.00 | 0.00 | 98 | 1017.2 |
| 20260905134832 | 70 | 32 | 0.0 | 0.0 | 0.00 | 0.00 | 0.00 | 98 | 1017.2 |
| 20260905134606 | 70 | 34 | 0.0 | 0.0 | 0.00 | 0.00 | 0.00 | 98 | 1017.2 |
| 20260905134506 | 70 | 34 | 0.0 | 0.0 | 0.00 | 0.00 | 0.00 | 98 | 1017.2 |
| 20260905134304 | 70 | 34 | 0.0 | 0.0 | 0.00 | 0.00 | 0.00 | 98 | 1017.2 |
| 20260905134150 | 70 | 35 | 0.0 | 0.0 | 0.00 | 0.00 | 0.00 | 98 | 1017.3 |
| 20260905134049 | 70 | 34 | 0.0 | 0.0 | 0.00 | 0.00 | 0.00 | 98 | 1017.3 |
| 20260905133746 | 70 | 34 | 0.0 | 0.0 | 0.00 | 0.00 | 0.00 | 98 | 1017.3 |
| 20260905133544 | 70 | 34 | 0.0 | 0.0 | 0.00 | 0.00 | 0.00 | 98 | 1017.2 |
| 20260905133439 | 69 | 34 | 0.0 | 0.0 | 0.00 | 0.00 | 0.00 | 98 | 1017.2 |
| 20260905133244 | 69 | 34 | 0.0 | 0.0 | 0.00 | 0.00 | 0.00 | 98 | 1017.2 |
| 20260905133144 | 70 | 34 | 0.0 | 0.0 | 0.00 | 0.00 | 0.00 | 98 | 1017.2 |
| 20260905133039 | 70 | 34 | 0.0 | 0.0 | 0.00 | 0.00 | 0.00 | 98 | 1017.2 |
| 20260905132755 | 69 | 32 | 0.0 | 0.0 | 0.00 | 0.00 | 0.00 | 98 | 1017.2 |
| 20260905132749 | 69 | 34 | 0.0 | 0.0 | 0.00 | 0.00 | 0.00 | 98 | 1017.2 |
| 20260905132542 | 69 | 34 | 0.0 | 0.0 | 0.00 | 0.00 | 0.00 | 98 | 1017.1 |
| 20260905132342 | 69 | 34 | 0.0 | 0.0 | 0.00 | 0.00 | 0.00 | 98 | 1017.2 |
| 20260905132243 | 69 | 35 | 0.0 | 0.0 | 0.00 | 0.00 | 0.00 | 98 | 1017.1 |
| 20260905132137 | 69 | 34 | 0.0 | 0.0 | 0.00 | 0.00 | 0.00 | 98 | 1017.0 |
| 20260905132037 | 69 | 32 | 0.0 | 0.0 | 0.00 | 0.00 | 0.00 | 98 | 1017.0 |
| 20260905131751 | 69 | 34 | 0.0 | 0.0 | 0.00 | 0.00 | 0.00 | 98 | 1017.0 |
| 20260905131636 | 69 | 34 | 0.0 | 0.0 | 0.00 | 0.00 | 0.00 | 98 | 1017.0 |
| 20260905131333 | 69 | 35 | 0.0 | 0.0 | 0.00 | 0.00 | 0.00 | 98 | 1017.0 |
| 20260905131249 | 69 | 34 | 0.0 | 0.0 | 0.00 | 0.00 | 0.00 | 98 | 1017.0 |
| 20260905131131 | 69 | 34 | 0.0 | 0.0 | 0.00 | 0.00 | 0.00 | 98 | 1017.0 |
| 20260905130933 | 69 | 35 | 0.0 | 0.0 | 0.00 | 0.00 | 0.00 | 98 | 1017.0 |
| 20260905130745 | 69 | 35 | 0.0 | 0.0 | 0.00 | 0.00 | 0.00 | 98 | 1017.0 |
| 20260905130732 | 69 | 35 | 0.0 | 0.0 | 0.00 | 0.00 | 0.00 | 98 | 1016.9 |
| 20260905130610 | 69 | 35 | 0.0 | 0.0 | 0.00 | 0.00 | 0.00 | 98 | 1016.9 |
| 20260905130315 | 69 | 34 | 0.0 | 0.0 | 0.00 | 0.00 | 0.00 | 98 | 1016.9 |
| 20260905130249 | 69 | 35 | 0.0 | 0.0 | 0.00 | 0.00 | 0.00 | 98 | 1016.9 |
| 20260905130202 | 69 | 34 | 0.0 | 0.0 | 0.00 | 0.00 | 0.00 | 98 | 1016.8 |
| 20260905125904 | 69 | 34 | 0.0 | 0.0 | 0.00 | 0.00 | 0.00 | 98 | 1016.7 |
| 20260905125735 | 69 | 35 | 0.0 | 0.0 | 0.00 | 0.00 | 0.00 | 98 | 1016.7 |
| 20260905125637 | 69 | 34 | 0.0 | 0.0 | 0.00 | 0.00 | 0.00 | 98 | 1016.7 |
| 20260905125437 | 69 | 34 | 0.0 | 0.0 | 0.00 | 0.00 | 0.00 | 98 | 1016.7 |
| 20260905125234 | 69 | 34 | 0.0 | 2.0 | 0.00 | 0.00 | 0.00 | 98 | 1016.6 |
| 20260905125035 | 69 | 34 | 0.0 | 2.0 | 0.00 | 0.00 | 0.00 | 98 | 1016.5 |
| 20260905124936 | 69 | 34 | 0.0 | 2.0 | 0.00 | 0.00 | 0.00 | 98 | 1016.3 |
| 20260905124733 | 69 | 34 | 0.0 | 2.0 | 0.00 | 0.00 | 0.00 | 98 | 1016.3 |
| 20260905124630 | 69 | 32 | 0.0 | 2.0 | 0.00 | 0.00 | 0.00 | 98 | 1016.2 |
| 20260905124527 | 69 | 34 | 0.0 | 3.0 | 0.00 | 0.00 | 0.00 | 98 | 1016.1 |
| 20260905124230 | 69 | 34 | 0.0 | 3.0 | 0.00 | 0.00 | 0.00 | 98 | 1016.0 |
| 20260905124030 | 69 | 34 | 0.0 | 3.0 | 0.00 | 0.00 | 0.00 | 98 | 1015.9 |
| 20260905123831 | 69 | 34 | 0.0 | 3.0 | 0.00 | 0.00 | 0.00 | 98 | 1015.9 |
| 20260905123748 | 69 | 34 | 0.0 | 3.0 | 0.00 | 0.00 | 0.00 | 98 | 1015.9 |
| 20260905123633 | 69 | 34 | 0.0 | 3.0 | 0.00 | 0.00 | 0.00 | 98 | 1015.8 |
| 20260905123528 | 69 | 52 | 0.0 | 2.0 | 0.00 | 0.00 | 0.00 | 98 | 1015.8 |
| 20260905123235 | 69 | 52 | 0.0 | 2.0 | 0.00 | 0.00 | 0.00 | 98 | 1015.7 |
| 20260905123131 | 69 | 52 | 0.0 | 2.0 | 0.00 | 0.00 | 0.00 | 98 | 1015.6 |
| 20260905122833 | 69 | 52 | 0.0 | 2.0 | 0.00 | 0.00 | 0.00 | 98 | 1015.6 |
| 20260905122737 | 69 | 52 | 0.0 | 2.0 | 0.00 | 0.00 | 0.00 | 98 | 1015.6 |
| 20260905122633 | 69 | 52 | 0.0 | 2.0 | 0.00 | 0.00 | 0.00 | 98 | 1015.5 |
| 20260905122434 | 69 | 52 | 0.0 | 1.0 | 0.00 | 0.00 | 0.00 | 98 | 1015.7 |
| 20260905122234 | 0 | 0.0 | 0.0 | 0.00 | 0.00 | 0.00 | 1015.7 | ||
| 20260905121938 | 0 | 0.0 | 0.0 | 0.00 | 0.00 | 0.00 | |||
| 20260905121702 | 0 | 0.0 | 0.0 | 0.00 | 0.00 | 0.00 | |||
| 20260905121607 | 0 | 0.0 | 0.0 | 0.00 | 0.00 | 0.00 | |||
| 20260905121407 | 0 | 0.0 | 0.0 | 0.00 | 0.00 | 0.00 | |||
| 20260905121206 | 0 | 0.0 | 0.0 | 0.00 | 0.00 | 0.00 | |||
| 20260905121007 | 0 | 0.0 | 0.0 | 0.00 | 0.00 | 0.00 | |||
| 20260905120936 | 0 | 0.0 | 0.0 | 0.00 | 0.00 | 0.00 | 1016.2 | ||
| 20260905120634 | 0 | 0.0 | 0.0 | 0.00 | 0.00 | 0.00 | 1016.2 | ||
| 20260905120535 | 0 | 0.0 | 0.0 | 0.00 | 0.00 | 0.00 | 1016.2 | ||
| 20260905120335 | 68 | 45 | 0.0 | 0.0 | 0.00 | 0.00 | 0.00 | 97 | 1016.2 |
| 20260905120136 | 68 | 45 | 0.0 | 0.0 | 0.00 | 0.00 | 0.00 | 97 | 1016.2 |
| 20260905115907 | 68 | 45 | 0.0 | 0.0 | 0.00 | 0.00 | 0.00 | 97 | 1016.2 |
| 20260905115710 | 68 | 45 | 0.0 | 3.0 | 0.00 | 0.00 | 0.00 | 97 | 1016.1 |
| 20260905115622 | 68 | 45 | 0.0 | 3.0 | 0.00 | 0.00 | 0.00 | 97 | 1016.1 |
| 20260905115512 | 68 | 45 | 0.0 | 3.0 | 0.00 | 0.00 | 0.00 | 97 | 1016.1 |
| 20260905115507 | 68 | 45 | 0.0 | 3.0 | 0.00 | 0.00 | 0.00 | 97 | 1016.1 |
| 20260905115122 | 68 | 45 | 0.0 | 3.0 | 0.00 | 0.00 | 0.00 | 97 | 1016.1 |
| 20260905115035 | 68 | 45 | 0.0 | 3.0 | 0.00 | 0.00 | 0.00 | 97 | 1016.0 |
| 20260905114827 | 68 | 45 | 0.0 | 3.0 | 0.00 | 0.00 | 0.00 | 97 | 1016.0 |
| 20260905114635 | 68 | 38 | 0.0 | 1.0 | 0.00 | 0.00 | 0.00 | 97 | 1016.0 |
| 20260905114622 | 68 | 39 | 0.0 | 1.0 | 0.00 | 0.00 | 0.00 | 97 | 1016.0 |
| 20260905114426 | 68 | 38 | 0.0 | 1.0 | 0.00 | 0.00 | 0.00 | 97 | 1016.0 |
| 20260905114229 | 68 | 38 | 0.0 | 1.0 | 0.00 | 0.00 | 0.00 | 97 | 1015.9 |
| 20260905114135 | 68 | 38 | 0.0 | 1.0 | 0.00 | 0.00 | 0.00 | 97 | 1015.9 |
| 20260905114031 | 0 | 37 | 0.0 | 0.0 | 0.00 | 0.00 | 0.00 | 1015.9 | |
| 20260905114026 | 68 | 39 | 0.0 | 1.0 | 0.00 | 0.00 | 0.00 | 97 | 1015.9 |
| 20260905113625 | 0 | 0.0 | 0.0 | 0.00 | 0.00 | 0.00 | 1015.7 | ||
| 20260905113335 | 0 | 0.0 | 0.0 | 0.00 | 0.00 | 0.00 | |||
| 20260905113139 | 0 | 0.0 | 0.0 | 0.00 | 0.00 | 0.00 | |||
| 20260905113033 | 0 | 0.0 | 0.0 | 0.00 | 0.00 | 0.00 | |||
| 20260905112935 | 0 | 0.0 | 0.0 | 0.00 | 0.00 | 0.00 | |||
| 20260905112708 | 0 | 0.0 | 0.0 | 0.00 | 0.00 | 0.00 | |||
| 20260905112610 | 0 | 0.0 | 0.0 | 0.00 | 0.00 | 0.00 | |||
| 20260905112507 | 0 | 0.0 | 0.0 | 0.00 | 0.00 | 0.00 | |||
| 20260905112307 | 0 | 0.0 | 0.0 | 0.00 | 0.00 | 0.00 | 1015.7 | ||
| 20260905112137 | 0 | 0.0 | 0.0 | 0.00 | 0.00 | 0.00 | 1015.7 | ||
| 20260905112003 | 0 | 0.0 | 0.0 | 0.00 | 0.00 | 0.00 | 1015.7 | ||
| 20260905111835 | 0 | 0.0 | 0.0 | 0.00 | 0.00 | 0.00 | 1015.7 | ||
| 20260905111635 | 68 | 32 | 0.0 | 5.0 | 0.00 | 0.00 | 0.00 | 97 | 1015.7 |
| 20260905111508 | 68 | 32 | 0.0 | 5.0 | 0.00 | 0.00 | 0.00 | 97 | 1015.7 |
| 20260905111434 | 68 | 32 | 0.0 | 5.0 | 0.00 | 0.00 | 0.00 | 97 | 1015.7 |
| 20260905111207 | 68 | 32 | 0.0 | 5.0 | 0.00 | 0.00 | 0.00 | 97 | 1015.6 |
| 20260905111116 | 68 | 32 | 0.0 | 5.0 | 0.00 | 0.00 | 0.00 | 97 | 1015.6 |
| 20260905111012 | 68 | 32 | 0.0 | 5.0 | 0.00 | 0.00 | 0.00 | 97 | 1015.6 |
| 20260905110735 | 68 | 31 | 0.0 | 5.0 | 0.00 | 0.00 | 0.00 | 97 | 1015.7 |
| 20260905110633 | 68 | 61 | 0.0 | 3.0 | 0.00 | 0.00 | 0.00 | 97 | 1015.7 |
| 20260905110437 | 68 | 58 | 0.0 | 3.0 | 0.00 | 0.00 | 0.00 | 97 | 1015.8 |
| 20260905110331 | 68 | 58 | 0.0 | 3.0 | 0.00 | 0.00 | 0.00 | 97 | 1015.7 |
| 20260905110131 | 68 | 59 | 0.0 | 3.0 | 0.00 | 0.00 | 0.00 | 97 | 1015.7 |
| 20260905105940 | 68 | 0 | 0.0 | 2.0 | 0.00 | 0.00 | 0.00 | 97 | 1015.9 |
| 20260905105710 | 68 | 0 | 0.0 | 2.0 | 0.00 | 0.00 | 0.00 | 97 | 1015.8 |
| 20260905105608 | 68 | 0 | 0.0 | 3.0 | 0.00 | 0.00 | 0.00 | 97 | 1015.7 |
| 20260905105410 | 68 | 0 | 0.0 | 3.0 | 0.00 | 0.00 | 0.00 | 97 | 1015.8 |
| 20260905105309 | 68 | 0 | 0.0 | 3.0 | 0.00 | 0.00 | 0.00 | 97 | 1015.8 |
| 20260905105112 | 68 | 329 | 0.0 | 3.0 | 0.00 | 0.00 | 0.00 | 97 | 1015.7 |
| 20260905104906 | 68 | 330 | 0.0 | 3.0 | 0.00 | 0.00 | 0.00 | 97 | 1015.7 |
| 20260905104709 | 68 | 329 | 0.0 | 3.0 | 0.00 | 0.00 | 0.00 | 97 | 1015.7 |
| 20260905104608 | 68 | 37 | 0.0 | 3.0 | 0.00 | 0.00 | 0.00 | 97 | 1015.7 |
| 20260905104410 | 68 | 37 | 0.0 | 3.0 | 0.00 | 0.00 | 0.00 | 97 | 1015.6 |
| 20260905104307 | 68 | 37 | 0.0 | 4.0 | 0.00 | 0.00 | 0.00 | 97 | 1015.6 |
| 20260905104145 | 68 | 35 | 0.0 | 4.0 | 0.00 | 0.00 | 0.00 | 97 | 1015.6 |
| 20260905103836 | 68 | 56 | 0.0 | 4.0 | 0.00 | 0.00 | 0.00 | 97 | 1015.4 |
| 20260905103641 | 68 | 54 | 0.0 | 4.0 | 0.00 | 0.00 | 0.00 | 97 | 1015.4 |
| 20260905103431 | 68 | 72 | 0.0 | 4.0 | 0.00 | 0.00 | 0.00 | 97 | 1015.5 |
| 20260905103334 | 68 | 86 | 0.0 | 4.0 | 0.00 | 0.00 | 0.00 | 97 | 1015.6 |
| 20260905103233 | 68 | 42 | 0.0 | 4.0 | 0.00 | 0.00 | 0.00 | 97 | 1015.6 |
| 20260905103210 | 68 | 47 | 0.0 | 5.0 | 0.00 | 0.00 | 0.00 | 97 | 1015.5 |
| 20260905103117 | 68 | 45 | 0.0 | 6.0 | 0.00 | 0.00 | 0.00 | 97 | 1015.5 |
| 20260905102831 | 68 | 59 | 0.0 | 6.0 | 0.00 | 0.00 | 0.00 | 97 | 1015.5 |
| 20260905102731 | 68 | 41 | 0.0 | 6.0 | 0.00 | 0.00 | 0.00 | 97 | 1015.4 |
| 20260905102431 | 68 | 38 | 0.0 | 6.0 | 0.00 | 0.00 | 0.00 | 97 | 1015.5 |
| 20260905102339 | 68 | 39 | 0.0 | 6.0 | 0.00 | 0.00 | 0.00 | 97 | 1015.4 |
| 20260905102233 | 68 | 37 | 0.0 | 6.0 | 0.00 | 0.00 | 0.00 | 97 | 1015.5 |
| 20260905102108 | 68 | 0 | 0.0 | 6.0 | 0.00 | 0.00 | 0.00 | 97 | 1015.5 |
| 20260905102047 | 0 | 0.0 | 0.0 | 0.00 | 0.00 | 0.00 | 1015.5 | ||
| 20260905101542 | 0 | 0.0 | 0.0 | 0.00 | 0.00 | 0.00 | |||
| 20260905101534 | 0 | 0.0 | 0.0 | 0.00 | 0.00 | 0.00 | |||
| 20260905101307 | 0 | 0.0 | 0.0 | 0.00 | 0.00 | 0.00 | |||
| 20260905101248 | 0 | 0.0 | 0.0 | 0.00 | 0.00 | 0.00 | |||
| 20260905100809 | 0 | 0.0 | 0.0 | 0.00 | 0.00 | 0.00 | |||
| 20260905100605 | 0 | 0.0 | 0.0 | 0.00 | 0.00 | 0.00 | |||
| 20260905100516 | 0 | 0.0 | 0.0 | 0.00 | 0.00 | 0.00 | 1015.4 | ||
| 20260905100507 | 0 | 0.0 | 0.0 | 0.00 | 0.00 | 0.00 | |||
| 20260905100247 | 68 | 41 | 0.0 | 2.0 | 0.00 | 0.00 | 0.00 | 97 | 1015.4 |
| 20260905100212 | 68 | 41 | 0.0 | 2.0 | 0.00 | 0.00 | 0.00 | 97 | 1015.4 |
| 20260905100208 | 0 | 0.0 | 0.0 | 0.00 | 0.00 | 0.00 | 1015.4 | ||
| 20260905095734 | 68 | 41 | 0.0 | 4.0 | 0.00 | 0.00 | 0.00 | 97 | 1015.4 |
| 20260905095509 | 68 | 41 | 0.0 | 4.0 | 0.00 | 0.00 | 0.00 | 97 | 1015.4 |
| 20260905095432 | 68 | 41 | 0.0 | 4.0 | 0.00 | 0.00 | 0.00 | 97 | 1015.5 |
| 20260905095314 | 68 | 41 | 0.0 | 4.0 | 0.00 | 0.00 | 0.00 | 97 | 1015.4 |
| 20260905095218 | 68 | 41 | 0.0 | 4.0 | 0.00 | 0.00 | 0.00 | 97 | 1015.2 |
| 20260905095214 | 68 | 59 | 0.0 | 4.0 | 0.00 | 0.00 | 0.00 | 97 | 1015.1 |
| 20260905095201 | 68 | 41 | 0.0 | 4.0 | 0.00 | 0.00 | 0.00 | 97 | 1015.2 |
| 20260905094706 | 68 | 38 | 0.0 | 2.0 | 0.00 | 0.00 | 0.00 | 97 | 1014.7 |
| 20260905094611 | 68 | 8 | 0.0 | 1.0 | 0.00 | 0.00 | 0.00 | 97 | 1014.6 |
| 20260905094435 | 68 | 8 | 0.0 | 1.0 | 0.00 | 0.00 | 0.00 | 97 | 1014.6 |
| 20260905094313 | 68 | 8 | 0.0 | 1.0 | 0.00 | 0.00 | 0.00 | 97 | 1014.6 |
| 20260905094038 | 68 | 7 | 0.0 | 1.0 | 0.00 | 0.00 | 0.00 | 97 | 1014.6 |
| 20260905093926 | 68 | 8 | 0.0 | 2.0 | 0.00 | 0.00 | 0.00 | 97 | 1014.6 |
| 20260905093837 | 68 | 8 | 0.0 | 3.0 | 0.00 | 0.00 | 0.00 | 97 | 1014.6 |
| 20260905093743 | 68 | 8 | 0.0 | 3.0 | 0.00 | 0.00 | 0.00 | 97 | 1014.5 |
| 20260905093707 | 68 | 10 | 0.0 | 3.0 | 0.00 | 0.00 | 0.00 | 97 | 1014.5 |
| 20260905093700 | 68 | 8 | 0.0 | 3.0 | 0.00 | 0.00 | 0.00 | 97 | 1014.7 |
| 20260905093241 | 68 | 350 | 0.0 | 3.0 | 0.00 | 0.00 | 0.00 | 97 | 1014.6 |
| 20260905093039 | 68 | 350 | 0.0 | 3.0 | 0.00 | 0.00 | 0.00 | 97 | 1014.6 |
| 20260905092914 | 68 | 347 | 0.0 | 3.0 | 0.00 | 0.00 | 0.00 | 97 | 1014.6 |
| 20260905092809 | 68 | 14 | 0.0 | 3.0 | 0.00 | 0.00 | 0.00 | 97 | 1014.6 |
| 20260905092703 | 68 | 38 | 0.0 | 3.0 | 0.00 | 0.00 | 0.00 | 97 | 1014.6 |
| 20260905092652 | 68 | 18 | 0.0 | 3.0 | 0.00 | 0.00 | 0.00 | 97 | 1014.7 |
| 20260905092624 | 68 | 38 | 0.0 | 3.0 | 0.00 | 0.00 | 0.00 | 97 | 1014.6 |
| 20260905092211 | 68 | 38 | 0.0 | 3.0 | 0.00 | 0.00 | 0.00 | 97 | 1014.6 |
| 20260905092010 | 68 | 16 | 0.0 | 3.0 | 0.00 | 0.00 | 0.00 | 97 | 1014.7 |
| 20260905091921 | 68 | 14 | 0.0 | 3.0 | 0.00 | 0.00 | 0.00 | 97 | 1014.7 |
| 20260905091911 | 68 | 16 | 0.0 | 3.0 | 0.00 | 0.00 | 0.00 | 97 | 1014.7 |
| 20260905091709 | 68 | 14 | 0.0 | 3.0 | 0.00 | 0.00 | 0.00 | 97 | 1014.8 |
| 20260905091650 | 68 | 16 | 0.0 | 3.0 | 0.00 | 0.00 | 0.00 | 97 | 1014.7 |
| 20260905091211 | 68 | 6 | 0.0 | 3.0 | 0.00 | 0.00 | 0.00 | 97 | 1014.8 |
| 20260905091009 | 68 | 6 | 0.0 | 3.0 | 0.00 | 0.00 | 0.00 | 97 | 1014.8 |
| 20260905090910 | 68 | 6 | 0.0 | 3.0 | 0.00 | 0.00 | 0.00 | 97 | 1014.8 |
| 20260905090810 | 68 | 6 | 0.0 | 3.0 | 0.00 | 0.00 | 0.00 | 97 | 1015.0 |
| 20260905090610 | 68 | 6 | 0.0 | 3.0 | 0.00 | 0.00 | 0.00 | 97 | 1015.0 |
| 20260905090521 | 68 | 6 | 0.0 | 3.0 | 0.00 | 0.00 | 0.00 | 97 | 1015.1 |
| 20260905090413 | 68 | 6 | 0.0 | 3.0 | 0.00 | 0.00 | 0.00 | 97 | 1015.1 |
| 20260905090210 | 68 | 3 | 0.0 | 2.0 | 0.00 | 0.00 | 0.00 | 96 | 1015.0 |
| 20260905090113 | 68 | 3 | 0.0 | 3.0 | 0.00 | 0.00 | 0.00 | 96 | 1015.1 |
| 20260905085910 | 68 | 3 | 0.0 | 3.0 | 0.00 | 0.00 | 0.00 | 96 | 1015.1 |
| 20260905085809 | 68 | 3 | 0.0 | 3.0 | 0.00 | 0.00 | 0.00 | 96 | 1015.1 |
| 20260905085657 | 68 | 3 | 0.0 | 3.0 | 0.00 | 0.00 | 0.00 | 96 | 1015.1 |
| 20260905085648 | 68 | 3 | 0.0 | 3.0 | 0.00 | 0.00 | 0.00 | 96 | 1015.2 |
| 20260905085622 | 68 | 3 | 0.0 | 3.0 | 0.00 | 0.00 | 0.00 | 96 | 1015.1 |
| 20260905085211 | 68 | 3 | 0.0 | 3.0 | 0.00 | 0.00 | 0.00 | 96 | 1015.3 |
| 20260905085110 | 68 | 0 | 0.0 | 3.0 | 0.00 | 0.00 | 0.00 | 96 | 1015.3 |
| 20260905084911 | 67 | 14 | 0.0 | 3.0 | 0.00 | 0.00 | 0.00 | 96 | 1015.1 |
| 20260905084810 | 67 | 16 | 0.0 | 3.0 | 0.00 | 0.00 | 0.00 | 96 | 1015.2 |
| 20260905084714 | 67 | 4 | 0.0 | 4.0 | 0.00 | 0.00 | 0.00 | 96 | 1015.1 |
| 20260905084658 | 67 | 11 | 0.0 | 3.0 | 0.00 | 0.00 | 0.00 | 96 | 1015.2 |
| 20260905084626 | 67 | 4 | 0.0 | 4.0 | 0.00 | 0.00 | 0.00 | 96 | 1015.1 |
| 20260905084210 | 67 | 30 | 0.0 | 4.0 | 0.00 | 0.00 | 0.00 | 96 | 1015.1 |
| 20260905084104 | 67 | 7 | 0.0 | 4.0 | 0.00 | 0.00 | 0.00 | 96 | 1015.2 |
| 20260905083910 | 67 | 8 | 0.0 | 4.0 | 0.00 | 0.00 | 0.00 | 96 | 1015.1 |
| 20260905083809 | 67 | 7 | 0.0 | 4.0 | 0.00 | 0.00 | 0.00 | 96 | 1015.2 |
| 20260905083757 | 67 | 51 | 0.0 | 4.0 | 0.00 | 0.00 | 0.00 | 96 | 1015.2 |
| 20260905083704 | 67 | 23 | 0.0 | 3.0 | 0.00 | 0.00 | 0.00 | 96 | 1015.2 |
| 20260905083624 | 67 | 23 | 0.0 | 3.0 | 0.00 | 0.00 | 0.00 | 96 | 1015.2 |
| 20260905083211 | 67 | 21 | 0.0 | 3.0 | 0.00 | 0.00 | 0.00 | 96 | 1015.2 |
| 20260905083010 | 67 | 16 | 0.0 | 3.0 | 0.00 | 0.00 | 0.00 | 96 | 1015.2 |
| 20260905082914 | 67 | 16 | 0.0 | 3.0 | 0.00 | 0.00 | 0.00 | 96 | 1015.1 |
| 20260905082812 | 67 | 16 | 0.0 | 3.0 | 0.00 | 0.00 | 0.00 | 96 | 1015.2 |
| 20260905082802 | 67 | 14 | 0.0 | 3.0 | 0.00 | 0.00 | 0.00 | 96 | 1015.1 |
| 20260905082715 | 67 | 14 | 0.0 | 3.0 | 0.00 | 0.00 | 0.00 | 96 | 1015.1 |
| 20260905082628 | 67 | 14 | 0.0 | 3.0 | 0.00 | 0.00 | 0.00 | 96 | 1015.1 |
| 20260905082309 | 67 | 21 | 0.0 | 1.0 | 0.00 | 0.00 | 0.00 | 96 | 1015.1 |
| 20260905082014 | 67 | 27 | 0.0 | 1.0 | 0.00 | 0.00 | 0.00 | 96 | 1015.1 |
| 20260905081910 | 67 | 25 | 0.0 | 1.0 | 0.00 | 0.00 | 0.00 | 96 | 1015.1 |
| 20260905081811 | 67 | 25 | 0.0 | 1.0 | 0.00 | 0.00 | 0.00 | 96 | 1015.2 |
| 20260905081713 | 67 | 25 | 0.0 | 1.0 | 0.00 | 0.00 | 0.00 | 96 | 1015.2 |
| 20260905081657 | 67 | 25 | 0.0 | 1.0 | 0.00 | 0.00 | 0.00 | 96 | 1015.2 |
| 20260905081624 | 67 | 25 | 0.0 | 1.0 | 0.00 | 0.00 | 0.00 | 96 | 1015.2 |
| 20260905081310 | 67 | 25 | 0.0 | 1.0 | 0.00 | 0.00 | 0.00 | 96 | 1015.2 |
| 20260905081011 | 67 | 25 | 0.0 | 1.0 | 0.00 | 0.00 | 0.00 | 96 | 1015.2 |
| 20260905080923 | 67 | 25 | 0.0 | 1.0 | 0.00 | 0.00 | 0.00 | 95 | 1015.3 |
| 20260905080914 | 67 | 27 | 0.0 | 1.0 | 0.00 | 0.00 | 0.00 | 95 | 1015.2 |
| 20260905080700 | 67 | 25 | 0.0 | 1.0 | 0.00 | 0.00 | 0.00 | 95 | 1015.3 |
| 20260905080652 | 67 | 25 | 0.0 | 1.0 | 0.00 | 0.00 | 0.00 | 95 | 1015.2 |
| 20260905080626 | 67 | 25 | 0.0 | 1.0 | 0.00 | 0.00 | 0.00 | 95 | 1015.3 |
| 20260905080211 | 67 | 25 | 0.0 | 1.0 | 0.00 | 0.00 | 0.00 | 95 | 1015.3 |
| 20260905080010 | 67 | 25 | 0.0 | 0.0 | 0.00 | 0.00 | 0.00 | 95 | 1015.4 |
| 20260905075921 | 67 | 25 | 0.0 | 0.0 | 0.00 | 0.00 | 0.00 | 95 | 1015.3 |
| 20260905075912 | 67 | 27 | 0.0 | 0.0 | 0.00 | 0.00 | 0.00 | 95 | 1015.3 |
| 20260905075704 | 67 | 25 | 0.0 | 0.0 | 0.00 | 0.00 | 0.00 | 95 | 1015.3 |
| 20260905075652 | 67 | 25 | 0.0 | 0.0 | 0.00 | 0.00 | 0.00 | 95 | 1015.3 |
| 20260905075208 | 68 | 25 | 0.0 | 0.0 | 0.00 | 0.00 | 0.00 | 95 | 1015.2 |
| 20260905075008 | 68 | 25 | 0.0 | 1.0 | 0.00 | 0.00 | 0.00 | 95 | 1015.4 |
| 20260905074916 | 68 | 25 | 0.0 | 1.0 | 0.00 | 0.00 | 0.00 | 95 | 1015.4 |
| 20260905074810 | 68 | 25 | 0.0 | 1.0 | 0.00 | 0.00 | 0.00 | 95 | 1015.4 |
| 20260905074709 | 68 | 27 | 0.0 | 1.0 | 0.00 | 0.00 | 0.00 | 95 | 1015.3 |
| 20260905074657 | 68 | 25 | 0.0 | 1.0 | 0.00 | 0.00 | 0.00 | 95 | 1015.4 |
| 20260905074211 | 68 | 27 | 0.0 | 1.0 | 0.00 | 0.00 | 0.00 | 95 | 1015.3 |
| 20260905074109 | 68 | 25 | 0.0 | 1.0 | 0.00 | 0.00 | 0.00 | 95 | 1015.3 |
| 20260905073905 | 68 | 25 | 0.0 | 1.0 | 0.00 | 0.00 | 0.00 | 95 | 1015.4 |
| 20260905073810 | 68 | 27 | 0.0 | 1.0 | 0.00 | 0.00 | 0.00 | 95 | 1015.4 |
| 20260905073610 | 68 | 27 | 0.0 | 0.0 | 0.00 | 0.00 | 0.00 | 95 | 1015.4 |
| 20260905073429 | 68 | 27 | 0.0 | 0.0 | 0.00 | 0.00 | 0.00 | 95 | 1015.5 |
| 20260905073420 | 68 | 25 | 0.0 | 0.0 | 0.00 | 0.00 | 0.00 | 95 | 1015.5 |
| 20260905073234 | 68 | 27 | 0.0 | 0.0 | 0.00 | 0.00 | 0.00 | 95 | 1015.5 |
| 20260905073207 | 68 | 25 | 0.0 | 0.0 | 0.00 | 0.00 | 0.00 | 95 | 1015.5 |
| 20260905073153 | 68 | 25 | 0.0 | 1.0 | 0.00 | 0.00 | 0.00 | 95 | 1015.4 |
| 20260905072806 | 68 | 25 | 0.0 | 1.0 | 0.00 | 0.00 | 0.00 | 95 | 1015.4 |
| 20260905072604 | 68 | 27 | 0.0 | 1.0 | 0.00 | 0.00 | 0.00 | 95 | 1015.3 |
| 20260905072407 | 68 | 25 | 0.0 | 1.0 | 0.00 | 0.00 | 0.00 | 95 | 1015.3 |
| 20260905072306 | 68 | 25 | 0.0 | 1.0 | 0.00 | 0.00 | 0.00 | 95 | 1015.2 |
| 20260905072154 | 68 | 25 | 0.0 | 1.0 | 0.00 | 0.00 | 0.00 | 95 | 1015.4 |
| 20260905072149 | 68 | 25 | 0.0 | 0.0 | 0.00 | 0.00 | 0.00 | 95 | 1015.4 |
| 20260905072135 | 68 | 25 | 0.0 | 1.0 | 0.00 | 0.00 | 0.00 | 95 | 1015.3 |
| 20260905071605 | 0 | 0.0 | 0.0 | 0.00 | 0.00 | 0.00 | 1015.5 | ||
| 20260905071406 | 0 | 0.0 | 0.0 | 0.00 | 0.00 | 0.00 | 1015.4 | ||
| 20260905071135 | 0 | 0.0 | 0.0 | 0.00 | 0.00 | 0.00 | |||
| 20260905071047 | 0 | 0.0 | 0.0 | 0.00 | 0.00 | 0.00 | |||
| 20260905071043 | 0 | 0.0 | 0.0 | 0.00 | 0.00 | 0.00 | |||
| 20260905071033 | 0 | 0.0 | 0.0 | 0.00 | 0.00 | 0.00 | |||
| 20260905070534 | 0 | 0.0 | 0.0 | 0.00 | 0.00 | 0.00 | |||
| 20260905070437 | 0 | 0.0 | 0.0 | 0.00 | 0.00 | 0.00 | |||
| 20260905070303 | 0 | 0.0 | 0.0 | 0.00 | 0.00 | 0.00 | |||
| 20260905070107 | 0 | 0.0 | 0.0 | 0.00 | 0.00 | 0.00 | 1015.4 | ||
| 20260905065907 | 0 | 0.0 | 0.0 | 0.00 | 0.00 | 0.00 | 1015.4 | ||
| 20260905065809 | 0 | 0.0 | 0.0 | 0.00 | 0.00 | 0.00 | 1015.4 | ||
| 20260905065706 | 0 | 0.0 | 0.0 | 0.00 | 0.00 | 0.00 | 1015.4 | ||
| 20260905065435 | 69 | 25 | 0.0 | 0.0 | 0.00 | 0.00 | 0.00 | 94 | 1015.4 |
| 20260905065345 | 69 | 25 | 0.0 | 0.0 | 0.00 | 0.00 | 0.00 | 94 | 1015.4 |
| 20260905065240 | 69 | 25 | 0.0 | 0.0 | 0.00 | 0.00 | 0.00 | 94 | 1015.4 |
| 20260905065023 | 69 | 25 | 0.0 | 0.0 | 0.00 | 0.00 | 0.00 | 94 | 1015.5 |
| 20260905064922 | 69 | 25 | 0.0 | 0.0 | 0.00 | 0.00 | 0.00 | 94 | 1015.4 |
| 20260905064724 | 69 | 25 | 0.0 | 0.0 | 0.00 | 0.00 | 0.00 | 94 | 1015.5 |
| 20260905064622 | 69 | 25 | 0.0 | 0.0 | 0.00 | 0.00 | 0.00 | 94 | 1015.4 |
| 20260905064421 | 0 | 27 | 0.0 | 0.0 | 0.00 | 0.00 | 0.00 | 1015.4 | |
| 20260905064329 | 0 | 0.0 | 0.0 | 0.00 | 0.00 | 0.00 | 1015.5 | ||
| 20260905064223 | 0 | 0.0 | 0.0 | 0.00 | 0.00 | 0.00 | 1015.5 | ||
| 20260905063809 | 0 | 0.0 | 0.0 | 0.00 | 0.00 | 0.00 | |||
| 20260905063705 | 0 | 0.0 | 0.0 | 0.00 | 0.00 | 0.00 | |||
| 20260905063334 | 0 | 0.0 | 0.0 | 0.00 | 0.00 | 0.00 | |||
| 20260905063233 | 0 | 0.0 | 0.0 | 0.00 | 0.00 | 0.00 | |||
| 20260905063135 | 0 | 0.0 | 0.0 | 0.00 | 0.00 | 0.00 | |||
| 20260905062934 | 0 | 0.0 | 0.0 | 0.00 | 0.00 | 0.00 | |||
| 20260905062734 | 0 | 0.0 | 0.0 | 0.00 | 0.00 | 0.00 | 1015.3 | ||
| 20260905062606 | 0 | 0.0 | 0.0 | 0.00 | 0.00 | 0.00 | 1015.3 | ||
| 20260905062307 | 69 | 25 | 0.0 | 0.0 | 0.00 | 0.00 | 0.00 | 94 | 1015.3 |
| 20260905062216 | 69 | 25 | 0.0 | 0.0 | 0.00 | 0.00 | 0.00 | 94 | 1015.3 |
| 20260905062208 | 69 | 25 | 0.0 | 0.0 | 0.00 | 0.00 | 0.00 | 94 | 1015.3 |
| 20260905061946 | 69 | 25 | 0.0 | 0.0 | 0.00 | 0.00 | 0.00 | 94 | 1015.3 |
| 20260905061939 | 69 | 25 | 0.0 | 0.0 | 0.00 | 0.00 | 0.00 | 94 | 1015.3 |
| 20260905061916 | 69 | 25 | 0.0 | 0.0 | 0.00 | 0.00 | 0.00 | 94 | 1015.3 |
| 20260905061502 | 69 | 25 | 0.0 | 0.0 | 0.00 | 0.00 | 0.00 | 94 | 1015.3 |
| 20260905061259 | 69 | 25 | 0.0 | 0.0 | 0.00 | 0.00 | 0.00 | 93 | 1015.3 |
| 20260905061215 | 69 | 27 | 0.0 | 0.0 | 0.00 | 0.00 | 0.00 | 93 | 1015.2 |
| 20260905061200 | 69 | 25 | 0.0 | 0.0 | 0.00 | 0.00 | 0.00 | 93 | 1015.4 |
| 20260905060949 | 69 | 27 | 0.0 | 2.0 | 0.00 | 0.00 | 0.00 | 93 | 1015.2 |
| 20260905060939 | 69 | 25 | 0.0 | 2.0 | 0.00 | 0.00 | 0.00 | 93 | 1015.3 |
| 20260905060506 | 69 | 25 | 0.0 | 2.0 | 0.00 | 0.00 | 0.00 | 93 | 1015.3 |
| 20260905060459 | 69 | 24 | 0.0 | 2.0 | 0.00 | 0.00 | 0.00 | 93 | 1015.3 |
| 20260905060201 | 69 | 25 | 0.0 | 2.0 | 0.00 | 0.00 | 0.00 | 93 | 1015.2 |
| 20260905060100 | 69 | 25 | 0.0 | 1.0 | 0.00 | 0.00 | 0.00 | 93 | 1015.3 |
| 20260905055935 | 69 | 25 | 0.0 | 0.0 | 0.00 | 0.00 | 0.00 | 93 | 1015.2 |
| 20260905055915 | 0 | 0.0 | 0.0 | 0.00 | 0.00 | 0.00 | 1015.2 | ||
| 20260905055406 | 0 | 0.0 | 0.0 | 0.00 | 0.00 | 0.00 | |||
| 20260905055307 | 0 | 0.0 | 0.0 | 0.00 | 0.00 | 0.00 | |||
| 20260905055114 | 0 | 0.0 | 0.0 | 0.00 | 0.00 | 0.00 | |||
| 20260905055051 | 0 | 0.0 | 0.0 | 0.00 | 0.00 | 0.00 | |||
| 20260905054829 | 0 | 0.0 | 0.0 | 0.00 | 0.00 | 0.00 | |||
| 20260905054438 | 0 | 0.0 | 0.0 | 0.00 | 0.00 | 0.00 | |||
| 20260905054333 | 0 | 0.0 | 0.0 | 0.00 | 0.00 | 0.00 | |||
| 20260905054234 | 0 | 0.0 | 0.0 | 0.00 | 0.00 | 0.00 | 1015.2 | ||
| 20260905054008 | 0 | 0.0 | 0.0 | 0.00 | 0.00 | 0.00 | 1015.2 | ||
| 20260905053806 | 70 | 25 | 0.0 | 0.0 | 0.00 | 0.00 | 0.00 | 92 | 1015.2 |
| 20260905053607 | 70 | 25 | 0.0 | 0.0 | 0.00 | 0.00 | 0.00 | 92 | 1015.2 |
| 20260905053412 | 70 | 25 | 0.0 | 0.0 | 0.00 | 0.00 | 0.00 | 92 | 1015.2 |
| 20260905053406 | 70 | 25 | 0.0 | 0.0 | 0.00 | 0.00 | 0.00 | 92 | 1015.2 |
| 20260905053304 | 70 | 25 | 0.0 | 0.0 | 0.00 | 0.00 | 0.00 | 92 | 1015.2 |
| 20260905053003 | 70 | 25 | 0.0 | 0.0 | 0.00 | 0.00 | 0.00 | 92 | 1015.2 |
| 20260905052804 | 70 | 27 | 0.0 | 0.0 | 0.00 | 0.00 | 0.00 | 92 | 1015.2 |
| 20260905052602 | 70 | 25 | 0.0 | 0.0 | 0.00 | 0.00 | 0.00 | 92 | 1015.1 |
| 20260905052403 | 70 | 27 | 0.0 | 0.0 | 0.00 | 0.00 | 0.00 | 92 | 1015.2 |
| 20260905052306 | 70 | 27 | 0.0 | 0.0 | 0.00 | 0.00 | 0.00 | 92 | 1015.1 |
| 20260905052202 | 70 | 27 | 0.0 | 0.0 | 0.00 | 0.00 | 0.00 | 92 | 1015.1 |
| 20260905052004 | 70 | 25 | 0.0 | 0.0 | 0.00 | 0.00 | 0.00 | 92 | 1015.1 |
| 20260905051910 | 70 | 25 | 0.0 | 0.0 | 0.00 | 0.00 | 0.00 | 92 | 1014.8 |
| 20260905051805 | 70 | 25 | 0.0 | 0.0 | 0.00 | 0.00 | 0.00 | 92 | 1014.8 |
| 20260905051603 | 71 | 27 | 0.0 | 1.0 | 0.00 | 0.00 | 0.00 | 91 | 1015.0 |
| 20260905051402 | 71 | 24 | 0.0 | 1.0 | 0.00 | 0.00 | 0.00 | 92 | 1015.0 |
| 20260905051315 | 71 | 25 | 0.0 | 1.0 | 0.00 | 0.00 | 0.00 | 92 | 1015.0 |
| 20260905051300 | 71 | 25 | 0.0 | 1.0 | 0.00 | 0.00 | 0.00 | 92 | 1014.8 |
| 20260905051002 | 71 | 25 | 0.0 | 1.0 | 0.00 | 0.00 | 0.00 | 91 | 1014.8 |
| 20260905050813 | 71 | 25 | 0.0 | 1.0 | 0.00 | 0.00 | 0.00 | 91 | 1014.8 |
| 20260905050800 | 71 | 25 | 0.0 | 1.0 | 0.00 | 0.00 | 0.00 | 91 | 1014.8 |
| 20260905050602 | 71 | 25 | 0.0 | 0.0 | 0.00 | 0.00 | 0.00 | 91 | 1014.8 |
| 20260905050457 | 71 | 25 | 0.0 | 0.0 | 0.00 | 0.00 | 0.00 | 91 | 1014.8 |
| 20260905050303 | 71 | 24 | 0.0 | 0.0 | 0.00 | 0.00 | 0.00 | 91 | 1014.7 |
| 20260905050200 | 71 | 25 | 0.0 | 0.0 | 0.00 | 0.00 | 0.00 | 91 | 1014.7 |
| 20260905050000 | 71 | 25 | 0.0 | 0.0 | 0.00 | 0.00 | 0.00 | 91 | 1014.7 |
| 20260905045910 | 0 | 0.0 | 0.0 | 0.00 | 0.00 | 0.00 | 1014.8 | ||
| 20260905045802 | 0 | 0.0 | 0.0 | 0.00 | 0.00 | 0.00 | 1014.8 | ||
| 20260905045410 | 0 | 0.0 | 0.0 | 0.00 | 0.00 | 0.00 | |||
| 20260905045331 | 0 | 0.0 | 0.0 | 0.00 | 0.00 | 0.00 | |||
| 20260905045207 | 0 | 0.0 | 0.0 | 0.00 | 0.00 | 0.00 | |||
| 20260905045006 | 0 | 0.0 | 0.0 | 0.00 | 0.00 | 0.00 | |||
| 20260905044909 | 0 | 0.0 | 0.0 | 0.00 | 0.00 | 0.00 | |||
| 20260905044832 | 0 | 0.0 | 0.0 | 0.00 | 0.00 | 0.00 | |||
| 20260905044534 | 0 | 0.0 | 0.0 | 0.00 | 0.00 | 0.00 | |||
| 20260905044341 | 0 | 0.0 | 0.0 | 0.00 | 0.00 | 0.00 | 1014.8 | ||
| 20260905044303 | 0 | 0.0 | 0.0 | 0.00 | 0.00 | 0.00 | 1014.8 | ||
| 20260905044134 | 0 | 0.0 | 0.0 | 0.00 | 0.00 | 0.00 | 1014.8 | ||
| 20260905044048 | 72 | 25 | 0.0 | 1.0 | 0.00 | 0.00 | 0.00 | 90 | 1014.8 |
| 20260905044037 | 0 | 25 | 0.0 | 0.0 | 0.00 | 0.00 | 0.00 | 1014.8 | |
| 20260905043708 | 72 | 25 | 0.0 | 1.0 | 0.00 | 0.00 | 0.00 | 90 | 1014.8 |
| 20260905043649 | 72 | 25 | 0.0 | 1.0 | 0.00 | 0.00 | 0.00 | 90 | 1014.8 |
| 20260905043255 | 72 | 25 | 0.0 | 1.0 | 0.00 | 0.00 | 0.00 | 90 | 1014.7 |
| 20260905043053 | 72 | 25 | 0.0 | 1.0 | 0.00 | 0.00 | 0.00 | 90 | 1014.8 |
| 20260905043040 | 72 | 27 | 0.0 | 1.0 | 0.00 | 0.00 | 0.00 | 90 | 1014.7 |
| 20260905043025 | 72 | 27 | 0.0 | 1.0 | 0.00 | 0.00 | 0.00 | 90 | 1014.8 |
| 20260905042653 | 72 | 27 | 0.0 | 1.0 | 0.00 | 0.00 | 0.00 | 90 | 1014.8 |
| 20260905042453 | 72 | 25 | 0.0 | 0.0 | 0.00 | 0.00 | 0.00 | 90 | 1014.7 |
| 20260905042254 | 0 | 0.0 | 0.0 | 0.00 | 0.00 | 0.00 | 1014.7 | ||
| 20260905042104 | 0 | 0.0 | 0.0 | 0.00 | 0.00 | 0.00 | |||
| 20260905041844 | 0 | 0.0 | 0.0 | 0.00 | 0.00 | 0.00 | |||
| 20260905041431 | 0 | 0.0 | 0.0 | 0.00 | 0.00 | 0.00 | |||
| 20260905041232 | 0 | 0.0 | 0.0 | 0.00 | 0.00 | 0.00 | |||
| 20260905041130 | 0 | 0.0 | 0.0 | 0.00 | 0.00 | 0.00 | |||
| 20260905041031 | 0 | 0.0 | 0.0 | 0.00 | 0.00 | 0.00 | |||
| 20260905040804 | 0 | 0.0 | 0.0 | 0.00 | 0.00 | 0.00 | 1014.8 | ||
| 20260905040618 | 73 | 31 | 0.0 | 0.0 | 0.00 | 0.00 | 0.00 | 89 | 1014.8 |
| 20260905040604 | 0 | 0.0 | 0.0 | 0.00 | 0.00 | 0.00 | 1014.8 | ||
| 20260905040204 | 73 | 31 | 0.0 | 2.0 | 0.00 | 0.00 | 0.00 | 89 | 1014.8 |
| 20260905040116 | 73 | 31 | 0.0 | 2.0 | 0.00 | 0.00 | 0.00 | 89 | 1014.8 |
| 20260905035950 | 73 | 31 | 0.0 | 2.0 | 0.00 | 0.00 | 0.00 | 89 | 1014.8 |
| 20260905035749 | 73 | 31 | 0.0 | 2.0 | 0.00 | 0.00 | 0.00 | 89 | 1014.7 |
| 20260905035551 | 73 | 31 | 0.0 | 2.0 | 0.00 | 0.00 | 0.00 | 89 | 1014.7 |
| 20260905035353 | 73 | 31 | 0.0 | 1.0 | 0.00 | 0.00 | 0.00 | 89 | 1014.7 |
| 20260905035348 | 73 | 31 | 0.0 | 2.0 | 0.00 | 0.00 | 0.00 | 89 | 1014.7 |
| 20260905035039 | 73 | 31 | 0.0 | 2.0 | 0.00 | 0.00 | 0.00 | 89 | 1014.7 |
| 20260905034940 | 73 | 31 | 0.0 | 2.0 | 0.00 | 0.00 | 0.00 | 89 | 1014.7 |
| 20260905034739 | 73 | 31 | 0.0 | 2.0 | 0.00 | 0.00 | 0.00 | 89 | 1014.7 |
| 20260905034544 | 73 | 31 | 0.0 | 2.0 | 0.00 | 0.00 | 0.00 | 89 | 1014.8 |
| 20260905034535 | 73 | 32 | 0.0 | 2.0 | 0.00 | 0.00 | 0.00 | 89 | 1014.8 |
| 20260905034336 | 73 | 31 | 0.0 | 2.0 | 0.00 | 0.00 | 0.00 | 89 | 1014.8 |
| 20260905034135 | 74 | 32 | 0.0 | 2.0 | 0.00 | 0.00 | 0.00 | 89 | 1015.0 |
| 20260905034041 | 74 | 31 | 0.0 | 2.0 | 0.00 | 0.00 | 0.00 | 89 | 1014.8 |
| 20260905033939 | 0 | 31 | 0.0 | 2.0 | 0.00 | 0.00 | 0.00 | 1015.0 | |
| 20260905033933 | 74 | 32 | 0.0 | 2.0 | 0.00 | 0.00 | 0.00 | 89 | 1014.8 |
| 20260905033535 | 0 | 0.0 | 0.0 | 0.00 | 0.00 | 0.00 | 1015.0 | ||
| 20260905033134 | 0 | 0.0 | 0.0 | 0.00 | 0.00 | 0.00 | |||
| 20260905032908 | 0 | 0.0 | 0.0 | 0.00 | 0.00 | 0.00 | |||
| 20260905032831 | 0 | 0.0 | 0.0 | 0.00 | 0.00 | 0.00 | |||
| 20260905032706 | 0 | 0.0 | 0.0 | 0.00 | 0.00 | 0.00 | |||
| 20260905032506 | 0 | 0.0 | 0.0 | 0.00 | 0.00 | 0.00 | |||
| 20260905032306 | 0 | 0.0 | 0.0 | 0.00 | 0.00 | 0.00 | |||
| 20260905032232 | 0 | 0.0 | 0.0 | 0.00 | 0.00 | 0.00 | 1014.6 | ||
| 20260905031835 | 0 | 0.0 | 0.0 | 0.00 | 0.00 | 0.00 | 1014.6 | ||
| 20260905031802 | 0 | 0.0 | 0.0 | 0.00 | 0.00 | 0.00 | 1014.6 | ||
| 20260905031634 | 74 | 34 | 0.0 | 0.0 | 0.00 | 0.00 | 0.00 | 89 | 1014.6 |
| 20260905031435 | 74 | 34 | 0.0 | 0.0 | 0.00 | 0.00 | 0.00 | 89 | 1014.6 |
| 20260905031307 | 74 | 34 | 0.0 | 0.0 | 0.00 | 0.00 | 0.00 | 89 | 1014.6 |
| 20260905031215 | 74 | 34 | 0.0 | 0.0 | 0.00 | 0.00 | 0.00 | 89 | 1014.6 |
| 20260905031015 | 74 | 34 | 0.0 | 0.0 | 0.00 | 0.00 | 0.00 | 89 | 1014.6 |
| 20260905030826 | 74 | 34 | 0.0 | 0.0 | 0.00 | 0.00 | 0.00 | 89 | 1014.6 |
| 20260905030822 | 74 | 34 | 0.0 | 0.0 | 0.00 | 0.00 | 0.00 | 89 | 1014.6 |
| 20260905030808 | 74 | 34 | 0.0 | 0.0 | 0.00 | 0.00 | 0.00 | 89 | 1014.5 |
| 20260905030415 | 74 | 34 | 0.0 | 0.0 | 0.00 | 0.00 | 0.00 | 89 | 1014.5 |
| 20260905030303 | 74 | 37 | 0.0 | 0.0 | 0.00 | 0.00 | 0.00 | 89 | 1014.5 |
| 20260905030216 | 74 | 37 | 0.0 | 0.0 | 0.00 | 0.00 | 0.00 | 89 | 1014.5 |
| 20260905030012 | 74 | 30 | 0.0 | 0.0 | 0.00 | 0.00 | 0.00 | 89 | 1014.5 |
| 20260905025815 | 74 | 30 | 0.0 | 0.0 | 0.00 | 0.00 | 0.00 | 89 | 1014.4 |
| 20260905025801 | 74 | 30 | 0.0 | 0.0 | 0.00 | 0.00 | 0.00 | 89 | 1014.4 |
| 20260905025614 | 74 | 30 | 0.0 | 0.0 | 0.00 | 0.00 | 0.00 | 89 | 1014.4 |
| 20260905025417 | 74 | 31 | 0.0 | 0.0 | 0.00 | 0.00 | 0.00 | 89 | 1014.4 |
| 20260905025412 | 74 | 30 | 0.0 | 0.0 | 0.00 | 0.00 | 0.00 | 89 | 1014.3 |
| 20260905025306 | 74 | 31 | 0.0 | 0.0 | 0.00 | 0.00 | 0.00 | 89 | 1014.3 |
| 20260905025013 | 74 | 31 | 0.0 | 0.0 | 0.00 | 0.00 | 0.00 | 89 | 1014.3 |
| 20260905024815 | 74 | 31 | 0.0 | 0.0 | 0.00 | 0.00 | 0.00 | 89 | 1014.3 |
| 20260905024759 | 74 | 32 | 0.0 | 0.0 | 0.00 | 0.00 | 0.00 | 89 | 1014.3 |
| 20260905024609 | 74 | 30 | 0.0 | 0.0 | 0.00 | 0.00 | 0.00 | 89 | 1014.2 |
| 20260905024411 | 75 | 31 | 0.0 | 0.0 | 0.00 | 0.00 | 0.00 | 89 | 1014.2 |
| 20260905024259 | 75 | 31 | 0.0 | 0.0 | 0.00 | 0.00 | 0.00 | 89 | 1014.2 |
| 20260905024206 | 75 | 31 | 0.0 | 0.0 | 0.00 | 0.00 | 0.00 | 89 | 1014.2 |
| 20260905024059 | 75 | 31 | 0.0 | 0.0 | 0.00 | 0.00 | 0.00 | 88 | 1014.1 |
| 20260905024049 | 75 | 31 | 0.0 | 0.0 | 0.00 | 0.00 | 0.00 | 88 | 1014.2 |
| 20260905023603 | 0 | 0.0 | 0.0 | 0.00 | 0.00 | 0.00 | |||
| 20260905023311 | 0 | 0.0 | 0.0 | 0.00 | 0.00 | 0.00 | |||
| 20260905023107 | 0 | 0.0 | 0.0 | 0.00 | 0.00 | 0.00 | |||
| 20260905022906 | 0 | 0.0 | 0.0 | 0.00 | 0.00 | 0.00 | |||
| 20260905022823 | 0 | 0.0 | 0.0 | 0.00 | 0.00 | 0.00 | |||
| 20260905022535 | 0 | 0.0 | 0.0 | 0.00 | 0.00 | 0.00 | 1013.8 | ||
| 20260905022237 | 0 | 0.0 | 0.0 | 0.00 | 0.00 | 0.00 | 1013.8 | ||
| 20260905022107 | 0 | 0.0 | 0.0 | 0.00 | 0.00 | 0.00 | 1013.8 | ||
| 20260905022102 | 0 | 0.0 | 0.0 | 0.00 | 0.00 | 0.00 | 1013.8 | ||
| 20260905021845 | 75 | 35 | 0.0 | 0.0 | 0.00 | 0.00 | 0.00 | 87 | 1013.8 |
| 20260905021820 | 75 | 35 | 0.0 | 0.0 | 0.00 | 0.00 | 0.00 | 87 | 1013.8 |
| 20260905021406 | 75 | 35 | 0.0 | 0.0 | 0.00 | 0.00 | 0.00 | 87 | 1013.8 |
| 20260905021206 | 75 | 35 | 0.0 | 0.0 | 0.00 | 0.00 | 0.00 | 87 | 1013.8 |
| 20260905021114 | 75 | 35 | 0.0 | 0.0 | 0.00 | 0.00 | 0.00 | 87 | 1013.8 |
| 20260905021105 | 75 | 35 | 0.0 | 0.0 | 0.00 | 0.00 | 0.00 | 87 | 1013.8 |
| 20260905020915 | 76 | 35 | 0.0 | 0.0 | 0.00 | 0.00 | 0.00 | 87 | 1013.7 |
| 20260905020900 | 76 | 35 | 0.0 | 0.0 | 0.00 | 0.00 | 0.00 | 88 | 1013.8 |
| 20260905020404 | 76 | 34 | 0.0 | 0.0 | 0.00 | 0.00 | 0.00 | 87 | 1013.7 |
| 20260905020204 | 76 | 35 | 0.0 | 0.0 | 0.00 | 0.00 | 0.00 | 87 | 1013.6 |
| 20260905020117 | 76 | 35 | 0.0 | 0.0 | 0.00 | 0.00 | 0.00 | 87 | 1013.7 |
| 20260905020006 | 76 | 35 | 0.0 | 0.0 | 0.00 | 0.00 | 0.00 | 87 | 1013.7 |
| 20260905015805 | 76 | 35 | 0.0 | 0.0 | 0.00 | 0.00 | 0.00 | 87 | 1013.6 |
| 20260905015714 | 0 | 0.0 | 0.0 | 0.00 | 0.00 | 0.00 | 1013.7 | ||
| 20260905015609 | 0 | 0.0 | 0.0 | 0.00 | 0.00 | 0.00 | 1013.7 | ||
| 20260905015010 | 76 | 35 | 0.0 | 0.0 | 0.00 | 0.00 | 0.00 | 87 | 1013.5 |
| 20260905014804 | 76 | 35 | 0.0 | 0.0 | 0.00 | 0.00 | 0.00 | 86 | 1013.6 |
| 20260905014756 | 76 | 35 | 0.0 | 0.0 | 0.00 | 0.00 | 0.00 | 86 | 1013.5 |
| 20260905014629 | 76 | 35 | 0.0 | 0.0 | 0.00 | 0.00 | 0.00 | 86 | 1013.5 |
| 20260905014404 | 76 | 35 | 0.0 | 0.0 | 0.00 | 0.00 | 0.00 | 86 | 1013.5 |
| 20260905014204 | 76 | 35 | 0.0 | 0.0 | 0.00 | 0.00 | 0.00 | 86 | 1013.4 |
| 20260905014129 | 76 | 35 | 0.0 | 0.0 | 0.00 | 0.00 | 0.00 | 86 | 1013.4 |
| 20260905014006 | 76 | 34 | 0.0 | 0.0 | 0.00 | 0.00 | 0.00 | 86 | 1013.5 |
| 20260905013800 | 77 | 34 | 0.0 | 0.0 | 0.00 | 0.00 | 0.00 | 86 | 1013.5 |
| 20260905013635 | 77 | 34 | 0.0 | 0.0 | 0.00 | 0.00 | 0.00 | 86 | 1013.4 |
| 20260905013559 | 77 | 34 | 0.0 | 0.0 | 0.00 | 0.00 | 0.00 | 86 | 1013.4 |
| 20260905013339 | 77 | 35 | 0.0 | 0.0 | 0.00 | 0.00 | 0.00 | 85 | 1013.4 |
| 20260905013332 | 77 | 35 | 0.0 | 0.0 | 0.00 | 0.00 | 0.00 | 86 | 1013.5 |
| 20260905013131 | 77 | 35 | 0.0 | 0.0 | 0.00 | 0.00 | 0.00 | 85 | 1013.4 |
| 20260905013006 | 77 | 35 | 0.0 | 0.0 | 0.00 | 0.00 | 0.00 | 85 | 1013.5 |
| 20260905012730 | 77 | 34 | 0.0 | 0.0 | 0.00 | 0.00 | 0.00 | 85 | 1013.5 |
| 20260905012630 | 77 | 35 | 0.0 | 0.0 | 0.00 | 0.00 | 0.00 | 85 | 1013.5 |
| 20260905012530 | 77 | 35 | 0.0 | 0.0 | 0.00 | 0.00 | 0.00 | 85 | 1013.5 |
| 20260905012331 | 77 | 35 | 0.0 | 0.0 | 0.00 | 0.00 | 0.00 | 85 | 1013.5 |
| 20260905012121 | 77 | 35 | 0.0 | 0.0 | 0.00 | 0.00 | 0.00 | 85 | 1013.4 |
| 20260905011949 | 77 | 35 | 0.0 | 0.0 | 0.00 | 0.00 | 0.00 | 84 | 1013.4 |
| 20260905011941 | 77 | 34 | 0.0 | 0.0 | 0.00 | 0.00 | 0.00 | 85 | 1013.4 |
| 20260905011629 | 77 | 35 | 0.0 | 0.0 | 0.00 | 0.00 | 0.00 | 84 | 1013.4 |
| 20260905011558 | 78 | 35 | 0.0 | 0.0 | 0.00 | 0.00 | 0.00 | 84 | 1013.4 |
| 20260905011544 | 78 | 35 | 0.0 | 0.0 | 0.00 | 0.00 | 0.00 | 84 | 1013.4 |
| 20260905011419 | 78 | 35 | 0.0 | 0.0 | 0.00 | 0.00 | 0.00 | 84 | 1013.4 |
| 20260905010932 | 78 | 35 | 0.0 | 0.0 | 0.00 | 0.00 | 0.00 | 84 | 1013.4 |
| 20260905010701 | 78 | 35 | 0.0 | 0.0 | 0.00 | 0.00 | 0.00 | 84 | 1013.3 |
| 20260905010620 | 78 | 35 | 0.0 | 0.0 | 0.00 | 0.00 | 0.00 | 84 | 1013.4 |
| 20260905010503 | 78 | 35 | 0.0 | 0.0 | 0.00 | 0.00 | 0.00 | 84 | 1013.4 |
| 20260905010457 | 79 | 34 | 0.0 | 0.0 | 0.00 | 0.00 | 0.00 | 84 | 1013.3 |
| 20260905010453 | 79 | 34 | 0.0 | 0.0 | 0.00 | 0.00 | 0.00 | 84 | 1013.3 |
| 20260905010355 | 78 | 35 | 0.0 | 0.0 | 0.00 | 0.00 | 0.00 | 84 | 1013.3 |
| 20260905005915 | 79 | 35 | 0.0 | 0.0 | 0.00 | 0.00 | 0.00 | 84 | 1013.3 |
| 20260905005758 | 79 | 35 | 0.0 | 0.0 | 0.00 | 0.00 | 0.00 | 83 | 1013.3 |
| 20260905005618 | 79 | 35 | 0.0 | 0.0 | 0.00 | 0.00 | 0.00 | 83 | 1013.3 |
| 20260905005458 | 79 | 37 | 0.0 | 0.0 | 0.00 | 0.00 | 0.00 | 83 | 1013.2 |
| 20260905005453 | 79 | 34 | 0.0 | 0.0 | 0.00 | 0.00 | 0.00 | 82 | 1013.2 |
| 20260905005341 | 79 | 35 | 0.0 | 0.0 | 0.00 | 0.00 | 0.00 | 82 | 1013.1 |
| 20260905005059 | 79 | 35 | 0.0 | 0.0 | 0.00 | 0.00 | 0.00 | 82 | 1013.2 |
| 20260905004935 | 80 | 35 | 0.0 | 0.0 | 0.00 | 0.00 | 0.00 | 82 | 1013.2 |
| 20260905004740 | 80 | 35 | 0.0 | 0.0 | 0.00 | 0.00 | 0.00 | 81 | 1013.1 |
| 20260905004606 | 80 | 35 | 0.0 | 0.0 | 0.00 | 0.00 | 0.00 | 81 | 1013.1 |
| 20260905004440 | 80 | 35 | 0.0 | 0.0 | 0.00 | 0.00 | 0.00 | 81 | 1013.1 |
| 20260905004336 | 80 | 35 | 0.0 | 0.0 | 0.00 | 0.00 | 0.00 | 81 | 1013.1 |
| 20260905004104 | 80 | 34 | 0.0 | 0.0 | 0.00 | 0.00 | 0.00 | 81 | 1013.2 |
| 20260905004036 | 80 | 35 | 0.0 | 0.0 | 0.00 | 0.00 | 0.00 | 81 | 1013.1 |
| 20260905003855 | 80 | 37 | 0.0 | 0.0 | 0.00 | 0.00 | 0.00 | 81 | 1013.2 |
| 20260905003636 | 80 | 35 | 0.0 | 0.0 | 0.00 | 0.00 | 0.00 | 80 | 1013.2 |
| 20260905003602 | 81 | 35 | 0.0 | 0.0 | 0.00 | 0.00 | 0.00 | 80 | 1013.2 |
| 20260905003436 | 81 | 35 | 0.0 | 0.0 | 0.00 | 0.00 | 0.00 | 80 | 1013.1 |
| 20260905003234 | 81 | 34 | 0.0 | 0.0 | 0.00 | 0.00 | 0.00 | 80 | 1013.1 |
| 20260905003104 | 81 | 34 | 0.0 | 0.0 | 0.00 | 0.00 | 0.00 | 80 | 1013.2 |
| 20260905003033 | 81 | 35 | 0.0 | 0.0 | 0.00 | 0.00 | 0.00 | 80 | 1013.2 |
| 20260905002835 | 81 | 35 | 0.0 | 0.0 | 0.00 | 0.00 | 0.00 | 80 | 1013.2 |
| 20260905002726 | 82 | 37 | 0.0 | 0.0 | 0.00 | 0.00 | 0.00 | 80 | 1013.3 |
| 20260905002603 | 82 | 37 | 0.0 | 0.0 | 0.00 | 0.00 | 0.00 | 80 | 1013.3 |
| 20260905002431 | 82 | 37 | 0.0 | 0.0 | 0.00 | 0.00 | 0.00 | 79 | 1013.2 |
| 20260905002230 | 82 | 37 | 0.0 | 0.0 | 0.00 | 0.00 | 0.00 | 79 | 1013.2 |
| 20260905002103 | 82 | 38 | 0.0 | 0.0 | 0.00 | 0.00 | 0.00 | 79 | 1013.2 |
| 20260905002003 | 82 | 37 | 0.0 | 0.0 | 0.00 | 0.00 | 0.00 | 79 | 1013.2 |
| 20260905001919 | 83 | 37 | 0.0 | 0.0 | 0.00 | 0.00 | 0.00 | 78 | 1013.1 |
| 20260905001601 | 83 | 35 | 0.0 | 0.0 | 0.00 | 0.00 | 0.00 | 78 | 1013.1 |
| 20260905001400 | 83 | 37 | 0.0 | 0.0 | 0.00 | 0.00 | 0.00 | 78 | 1013.1 |
| 20260905001325 | 83 | 35 | 0.0 | 0.0 | 0.00 | 0.00 | 0.00 | 77 | 1013.1 |
| 20260905001102 | 83 | 35 | 0.0 | 0.0 | 0.00 | 0.00 | 0.00 | 77 | 1013.1 |
| 20260905001001 | 83 | 37 | 0.0 | 0.0 | 0.00 | 0.00 | 0.00 | 77 | 1013.1 |
| 20260905000853 | 85 | 37 | 0.0 | 0.0 | 0.00 | 0.00 | 0.00 | 75 | 1013.0 |
| 20260905000848 | 85 | 37 | 0.0 | 0.0 | 0.00 | 0.00 | 0.00 | 75 | 1013.0 |
| 20260905000835 | 84 | 38 | 0.0 | 0.0 | 0.00 | 0.00 | 0.00 | 76 | 1013.0 |
| 20260905000744 | 84 | 35 | 0.0 | 0.0 | 0.00 | 0.00 | 0.00 | 76 | 1013.0 |